Time,TemperatureF,DewpointF,PressureIn,WindDirection,WindDirectionDegrees,WindSpeedMPH,WindSpeedGustMPH,Humidity,HourlyPrecipIn,Conditions,Clouds,dailyrainin,SolarRadiationWatts/m^2,SoftwareType,DateUTC
2013-01-17 00:00:00,47.7,23.3,30.23,NNW,340,8.0,8.0,38,0.00,,,0.00,0,WeatherHawk,2013-01-17 07:00:00,
2013-01-17 00:02:00,47.8,23.5,30.23,NNW,342,7.0,8.0,38,0.00,,,0.00,0,WeatherHawk,2013-01-17 07:02:00,
2013-01-17 00:03:00,47.8,22.8,30.23,NNW,343,9.0,9.0,37,0.00,,,0.00,0,WeatherHawk,2013-01-17 07:03:00,
2013-01-17 00:05:00,48.0,23.0,30.23,NNW,344,7.0,8.0,37,0.00,,,0.00,1,WeatherHawk,2013-01-17 07:05:00,
2013-01-17 00:06:00,48.0,23.0,30.23,NNW,339,7.0,8.0,37,0.00,,,0.00,1,WeatherHawk,2013-01-17 07:06:00,
2013-01-17 00:09:00,48.0,23.6,30.23,NNW,340,7.0,9.0,38,0.00,,,0.00,0,WeatherHawk,2013-01-17 07:09:00,
2013-01-17 00:12:00,47.8,23.5,30.23,NNW,340,6.0,9.0,38,0.00,,,0.00,0,WeatherHawk,2013-01-17 07:12:00,
2013-01-17 00:17:00,47.3,23.6,30.23,NNW,344,7.0,9.0,39,0.00,,,0.00,0,WeatherHawk,2013-01-17 07:17:00,
2013-01-17 00:18:00,47.3,23.6,30.22,NNW,343,7.0,8.0,39,0.00,,,0.00,1,WeatherHawk,2013-01-17 07:18:00,
2013-01-17 00:19:00,47.1,23.4,30.22,NNW,339,7.0,8.0,39,0.00,,,0.00,0,WeatherHawk,2013-01-17 07:19:00,
2013-01-17 00:22:00,47.3,23.6,30.22,NNW,339,6.0,8.0,39,0.00,,,0.00,0,WeatherHawk,2013-01-17 07:22:00,
2013-01-17 00:24:00,47.3,23.6,30.22,NNW,338,6.0,8.0,39,0.00,,,0.00,0,WeatherHawk,2013-01-17 07:24:00,
2013-01-17 00:27:00,47.1,23.4,30.22,NNW,340,5.0,-999.0,39,0.00,,,0.00,0,WeatherHawk,2013-01-17 07:27:00,
2013-01-17 00:29:00,46.9,23.9,30.22,NNW,333,6.0,8.0,40,0.00,,,0.00,0,WeatherHawk,2013-01-17 07:29:00,
2013-01-17 00:32:00,46.9,23.9,30.22,NNW,336,6.0,8.0,40,0.00,,,0.00,0,WeatherHawk,2013-01-17 07:32:00,
2013-01-17 00:33:00,46.9,23.3,30.22,NNW,339,6.0,8.0,39,0.00,,,0.00,0,WeatherHawk,2013-01-17 07:33:00,
2013-01-17 00:37:00,47.3,23.6,30.22,NNW,334,6.0,8.0,39,0.00,,,0.00,0,WeatherHawk,2013-01-17 07:37:00,
2013-01-17 00:39:00,47.3,23.6,30.22,NNW,335,5.0,6.0,39,0.00,,,0.00,0,WeatherHawk,2013-01-17 07:39:00,
2013-01-17 00:41:00,47.5,23.8,30.22,NNW,330,5.0,6.0,39,0.00,,,0.00,0,WeatherHawk,2013-01-17 07:41:00,
2013-01-17 00:46:00,47.5,23.8,30.22,NW,325,5.0,6.0,39,0.00,,,0.00,0,WeatherHawk,2013-01-17 07:46:00,
2013-01-17 00:47:00,47.5,23.8,30.22,NW,325,5.0,6.0,39,0.00,,,0.00,0,WeatherHawk,2013-01-17 07:47:00,
2013-01-17 00:51:00,47.1,24.1,30.22,NW,305,4.0,0.0,40,0.00,,,0.00,0,WeatherHawk,2013-01-17 07:51:00,
2013-01-17 00:52:00,47.1,24.1,30.22,NW,310,4.0,0.0,40,0.00,,,0.00,0,WeatherHawk,2013-01-17 07:52:00,
2013-01-17 00:53:00,46.9,23.9,30.22,NW,310,4.0,0.0,40,0.00,,,0.00,0,WeatherHawk,2013-01-17 07:53:00,
2013-01-17 00:57:00,46.9,23.9,30.22,NW,304,3.0,0.0,40,0.00,,,0.00,0,WeatherHawk,2013-01-17 07:57:00,
2013-01-17 00:58:00,46.9,23.9,30.22,WNW,300,3.0,4.0,40,0.00,,,0.00,0,WeatherHawk,2013-01-17 07:58:00,
2013-01-17 00:59:00,46.9,23.9,30.22,WNW,291,4.0,4.0,40,0.00,,,0.00,0,WeatherHawk,2013-01-17 07:59:00,
2013-01-17 01:01:00,46.9,23.3,30.22,WNW,298,3.0,4.0,39,0.00,,,0.00,1,WeatherHawk,2013-01-17 08:01:00,
2013-01-17 01:03:00,46.9,23.3,30.22,NW,315,3.0,4.0,39,0.00,,,0.00,0,WeatherHawk,2013-01-17 08:03:00,
2013-01-17 01:05:00,46.9,23.3,30.22,WNW,287,2.0,4.0,39,0.00,,,0.00,0,WeatherHawk,2013-01-17 08:05:00,
2013-01-17 01:06:00,46.9,23.3,30.23,WNW,288,2.0,-999.0,39,0.00,,,0.00,0,WeatherHawk,2013-01-17 08:06:00,
2013-01-17 01:09:00,46.9,23.3,30.23,WNW,286,2.0,4.0,39,0.00,,,0.00,1,WeatherHawk,2013-01-17 08:09:00,
2013-01-17 01:11:00,46.9,23.3,30.22,West,269,3.0,4.0,39,0.00,,,0.00,0,WeatherHawk,2013-01-17 08:11:00,
2013-01-17 01:13:00,46.9,22.7,30.22,West,280,4.0,4.0,38,0.00,,,0.00,1,WeatherHawk,2013-01-17 08:13:00,
2013-01-17 01:15:00,46.9,22.7,30.22,WNW,284,5.0,5.0,38,0.00,,,0.00,0,WeatherHawk,2013-01-17 08:15:00,
2013-01-17 01:16:00,46.9,22.7,30.22,WNW,290,5.0,5.0,38,0.00,,,0.00,0,WeatherHawk,2013-01-17 08:16:00,
2013-01-17 01:20:00,47.1,22.8,30.22,WNW,291,5.0,0.0,38,0.00,,,0.00,0,WeatherHawk,2013-01-17 08:20:00,
2013-01-17 01:21:00,47.1,22.8,30.22,WNW,290,4.0,0.0,38,0.00,,,0.00,0,WeatherHawk,2013-01-17 08:21:00,
2013-01-17 01:22:00,47.1,22.8,30.22,WNW,294,5.0,0.0,38,0.00,,,0.00,0,WeatherHawk,2013-01-17 08:22:00,
2013-01-17 01:26:00,47.1,22.8,30.22,WNW,300,4.0,0.0,38,0.00,,,0.00,0,WeatherHawk,2013-01-17 08:26:00,
2013-01-17 01:27:00,46.9,22.7,30.22,WNW,302,4.0,0.0,38,0.00,,,0.00,0,WeatherHawk,2013-01-17 08:27:00,
2013-01-17 01:31:00,46.9,22.7,30.22,NW,307,4.0,0.0,38,0.00,,,0.00,0,WeatherHawk,2013-01-17 08:31:00,
2013-01-17 01:32:00,46.9,22.7,30.22,WNW,299,4.0,0.0,38,0.00,,,0.00,1,WeatherHawk,2013-01-17 08:32:00,
2013-01-17 01:33:00,46.9,22.7,30.22,WNW,291,5.0,0.0,38,0.00,,,0.00,0,WeatherHawk,2013-01-17 08:33:00,
2013-01-17 01:36:00,46.8,22.5,30.22,WNW,285,4.0,-999.0,38,0.00,,,0.00,0,WeatherHawk,2013-01-17 08:36:00,
2013-01-17 01:39:00,46.6,22.3,30.22,WNW,298,4.0,5.0,38,0.00,,,0.00,0,WeatherHawk,2013-01-17 08:39:00,
2013-01-17 01:41:00,46.4,22.2,30.22,WNW,297,5.0,5.0,38,0.00,,,0.00,0,WeatherHawk,2013-01-17 08:41:00,
2013-01-17 01:43:00,46.4,22.2,30.22,WNW,301,6.0,6.0,38,0.00,,,0.00,0,WeatherHawk,2013-01-17 08:43:00,
2013-01-17 01:46:00,46.4,22.2,30.22,NW,309,4.0,5.0,38,0.00,,,0.00,0,WeatherHawk,2013-01-17 08:46:00,
2013-01-17 01:47:00,46.4,22.2,30.22,NW,314,4.0,0.0,38,0.00,,,0.00,0,WeatherHawk,2013-01-17 08:47:00,
2013-01-17 01:51:00,46.6,22.3,30.22,NW,324,4.0,-999.0,38,0.00,,,0.00,0,WeatherHawk,2013-01-17 08:51:00,
2013-01-17 01:53:00,46.6,22.3,30.22,NW,316,4.0,0.0,38,0.00,,,0.00,0,WeatherHawk,2013-01-17 08:53:00,
2013-01-17 01:54:00,46.6,22.3,30.22,NW,322,4.0,0.0,38,0.00,,,0.00,0,WeatherHawk,2013-01-17 08:54:00,
2013-01-17 01:56:00,46.6,22.3,30.22,NW,320,4.0,-999.0,38,0.00,,,0.00,0,WeatherHawk,2013-01-17 08:56:00,
2013-01-17 02:00:00,46.9,22.0,30.22,NNW,333,4.0,5.0,37,0.00,,,0.00,0,WeatherHawk,2013-01-17 09:00:00,
2013-01-17 02:01:00,46.9,22.0,30.22,NNW,334,4.0,5.0,37,0.00,,,0.00,0,WeatherHawk,2013-01-17 09:01:00,
2013-01-17 02:02:00,47.1,22.2,30.22,NNW,336,4.0,5.0,37,0.00,,,0.00,1,WeatherHawk,2013-01-17 09:02:00,
2013-01-17 02:04:00,47.7,22.0,30.22,NNW,341,4.0,5.0,36,0.00,,,0.00,0,WeatherHawk,2013-01-17 09:04:00,
2013-01-17 02:06:00,47.8,22.2,30.22,NW,323,4.0,5.0,36,0.00,,,0.00,0,WeatherHawk,2013-01-17 09:06:00,
2013-01-17 02:11:00,47.8,22.2,30.22,NNW,334,4.0,0.0,36,0.00,,,0.00,0,WeatherHawk,2013-01-17 09:11:00,
2013-01-17 02:12:00,47.8,22.2,30.22,NNW,329,4.0,0.0,36,0.00,,,0.00,0,WeatherHawk,2013-01-17 09:12:00,
2013-01-17 02:13:00,47.8,22.2,30.22,NW,323,4.0,0.0,36,0.00,,,0.00,0,WeatherHawk,2013-01-17 09:13:00,
2013-01-17 02:17:00,47.7,22.0,30.22,NNW,331,4.0,0.0,36,0.00,,,0.00,0,WeatherHawk,2013-01-17 09:17:00,
2013-01-17 02:20:00,47.8,22.2,30.22,NNW,348,4.0,0.0,36,0.00,,,0.00,0,WeatherHawk,2013-01-17 09:20:00,
2013-01-17 02:21:00,48.0,21.7,30.22,North,353,4.0,-999.0,35,0.00,,,0.00,0,WeatherHawk,2013-01-17 09:21:00,
2013-01-17 02:26:00,48.6,22.2,30.22,NNW,348,5.0,0.0,35,0.00,,,0.00,1,WeatherHawk,2013-01-17 09:26:00,
2013-01-17 02:31:00,48.7,22.3,30.22,North,0,6.0,0.0,35,0.00,,,0.00,1,WeatherHawk,2013-01-17 09:31:00,
2013-01-17 02:33:00,48.9,21.8,30.22,North,355,6.0,0.0,34,0.00,,,0.00,0,WeatherHawk,2013-01-17 09:33:00,
2013-01-17 02:35:00,48.9,21.8,30.22,North,352,6.0,0.0,34,0.00,,,0.00,0,WeatherHawk,2013-01-17 09:35:00,
2013-01-17 02:36:00,48.9,21.8,30.22,North,349,6.0,0.0,34,0.00,,,0.00,0,WeatherHawk,2013-01-17 09:36:00,
2013-01-17 02:39:00,48.7,22.3,30.22,NNW,347,6.0,0.0,35,0.00,,,0.00,0,WeatherHawk,2013-01-17 09:39:00,
2013-01-17 02:40:00,48.7,22.3,30.22,NNW,346,5.0,0.0,35,0.00,,,0.00,0,WeatherHawk,2013-01-17 09:40:00,
2013-01-17 02:41:00,48.6,22.2,30.22,NNW,342,4.0,-999.0,35,0.00,,,0.00,0,WeatherHawk,2013-01-17 09:41:00,
2013-01-17 02:42:00,48.2,21.8,30.22,NNW,340,4.0,0.0,35,0.00,,,0.00,0,WeatherHawk,2013-01-17 09:42:00,
2013-01-17 02:44:00,48.2,21.8,30.22,NNW,346,4.0,0.0,35,0.00,,,0.00,0,WeatherHawk,2013-01-17 09:44:00,
2013-01-17 02:46:00,48.4,22.0,30.22,North,354,5.0,0.0,35,0.00,,,0.00,0,WeatherHawk,2013-01-17 09:46:00,
2013-01-17 02:48:00,48.6,22.2,30.22,North,351,5.0,6.0,35,0.00,,,0.00,0,WeatherHawk,2013-01-17 09:48:00,
2013-01-17 02:51:00,49.1,22.0,30.22,North,350,5.0,6.0,34,0.00,,,0.00,0,WeatherHawk,2013-01-17 09:51:00,
2013-01-17 02:54:00,49.3,22.1,30.22,NNW,344,5.0,6.0,34,0.00,,,0.00,0,WeatherHawk,2013-01-17 09:54:00,
2013-01-17 02:55:00,49.3,22.1,30.22,NNW,345,6.0,6.0,34,0.00,,,0.00,0,WeatherHawk,2013-01-17 09:55:00,
2013-01-17 02:56:00,49.3,22.1,30.22,NNW,345,6.0,6.0,34,0.00,,,0.00,0,WeatherHawk,2013-01-17 09:56:00,
2013-01-17 03:01:00,48.7,21.6,30.22,NNW,335,6.0,0.0,34,0.00,,,0.00,0,WeatherHawk,2013-01-17 10:01:00,
2013-01-17 03:06:00,48.4,21.3,30.22,NNW,329,5.0,-999.0,34,0.00,,,0.00,0,WeatherHawk,2013-01-17 10:06:00,
2013-01-17 03:11:00,47.8,21.5,30.22,NNW,333,5.0,0.0,35,0.00,,,0.00,0,WeatherHawk,2013-01-17 10:11:00,
2013-01-17 03:14:00,47.7,21.4,30.22,NW,314,5.0,0.0,35,0.00,,,0.00,0,WeatherHawk,2013-01-17 10:14:00,
2013-01-17 03:16:00,47.5,21.2,30.22,NW,307,5.0,0.0,35,0.00,,,0.00,0,WeatherHawk,2013-01-17 10:16:00,
2013-01-17 03:21:00,47.8,21.5,30.22,WNW,302,5.0,0.0,35,0.00,,,0.00,0,WeatherHawk,2013-01-17 10:21:00,
2013-01-17 03:26:00,47.1,21.6,30.22,NW,306,5.0,0.0,36,0.00,,,0.00,0,WeatherHawk,2013-01-17 10:26:00,
2013-01-17 03:27:00,47.1,21.6,30.22,NW,311,5.0,5.0,36,0.00,,,0.00,0,WeatherHawk,2013-01-17 10:27:00,
2013-01-17 03:28:00,47.3,21.7,30.22,NW,313,4.0,5.0,36,0.00,,,0.00,0,WeatherHawk,2013-01-17 10:28:00,
2013-01-17 03:31:00,47.5,21.2,30.22,NW,312,5.0,-999.0,35,0.00,,,0.00,0,WeatherHawk,2013-01-17 10:31:00,
2013-01-17 03:33:00,48.0,21.7,30.22,NW,318,6.0,6.0,35,0.00,,,0.00,0,WeatherHawk,2013-01-17 10:33:00,
2013-01-17 03:35:00,48.2,21.8,30.22,NW,324,6.0,6.0,35,0.00,,,0.00,0,WeatherHawk,2013-01-17 10:35:00,
2013-01-17 03:37:00,48.4,22.0,30.22,NW,326,5.0,0.0,35,0.00,,,0.00,0,WeatherHawk,2013-01-17 10:37:00,
2013-01-17 03:39:00,48.4,22.0,30.22,NW,325,5.0,0.0,35,0.00,,,0.00,0,WeatherHawk,2013-01-17 10:39:00,
2013-01-17 03:41:00,48.2,21.8,30.22,NNW,327,5.0,0.0,35,0.00,,,0.00,0,WeatherHawk,2013-01-17 10:41:00,
2013-01-17 03:42:00,48.4,22.0,30.22,NNW,331,6.0,0.0,35,0.00,,,0.00,0,WeatherHawk,2013-01-17 10:42:00,
2013-01-17 03:44:00,48.6,22.2,30.22,NNW,331,6.0,0.0,35,0.00,,,0.00,0,WeatherHawk,2013-01-17 10:44:00,
2013-01-17 03:46:00,48.6,21.5,30.22,NNW,332,6.0,-999.0,34,0.00,,,0.00,0,WeatherHawk,2013-01-17 10:46:00,
2013-01-17 03:50:00,49.1,22.0,30.22,NNW,331,6.0,0.0,34,0.00,,,0.00,0,WeatherHawk,2013-01-17 10:50:00,
2013-01-17 03:52:00,49.1,22.0,30.22,NNW,334,5.0,0.0,34,0.00,,,0.00,0,WeatherHawk,2013-01-17 10:52:00,
2013-01-17 03:55:00,49.1,22.0,30.22,NNW,327,6.0,0.0,34,0.00,,,0.00,0,WeatherHawk,2013-01-17 10:55:00,
2013-01-17 03:59:00,49.1,22.0,30.22,NW,320,5.0,0.0,34,0.00,,,0.00,0,WeatherHawk,2013-01-17 10:59:00,
2013-01-17 04:01:00,49.1,22.0,30.22,NW,308,5.0,0.0,34,0.00,,,0.00,0,WeatherHawk,2013-01-17 11:01:00,
2013-01-17 04:02:00,48.7,22.3,30.22,NW,308,5.0,0.0,35,0.00,,,0.00,0,WeatherHawk,2013-01-17 11:02:00,
2013-01-17 04:06:00,48.4,22.0,30.22,NNW,328,5.0,0.0,35,0.00,,,0.00,0,WeatherHawk,2013-01-17 11:06:00,
2013-01-17 04:07:00,48.4,22.0,30.22,NNW,339,7.0,-999.0,35,0.00,,,0.00,0,WeatherHawk,2013-01-17 11:07:00,
2013-01-17 04:08:00,48.6,21.5,30.22,NNW,338,7.0,7.0,34,0.00,,,0.00,0,WeatherHawk,2013-01-17 11:08:00,
2013-01-17 04:10:00,48.9,21.8,30.22,NNW,341,7.0,7.0,34,0.00,,,0.00,0,WeatherHawk,2013-01-17 11:10:00,
2013-01-17 04:12:00,49.1,22.0,30.21,NNW,343,7.0,7.0,34,0.00,,,0.00,0,WeatherHawk,2013-01-17 11:12:00,
2013-01-17 04:16:00,49.1,22.0,30.22,NNW,341,8.0,8.0,34,0.00,,,0.00,0,WeatherHawk,2013-01-17 11:16:00,
2013-01-17 04:17:00,49.1,22.0,30.21,NNW,338,6.0,7.0,34,0.00,,,0.00,0,WeatherHawk,2013-01-17 11:17:00,
2013-01-17 04:22:00,48.6,22.2,30.21,NNW,329,5.0,9.0,35,0.00,,,0.00,0,WeatherHawk,2013-01-17 11:22:00,
2013-01-17 04:23:00,48.2,22.5,30.21,NW,324,5.0,9.0,36,0.00,,,0.00,1,WeatherHawk,2013-01-17 11:23:00,
2013-01-17 04:24:00,48.2,22.5,30.21,NW,316,5.0,9.0,36,0.00,,,0.00,0,WeatherHawk,2013-01-17 11:24:00,
2013-01-17 04:27:00,47.7,22.7,30.21,NNW,331,5.0,9.0,37,0.00,,,0.00,0,WeatherHawk,2013-01-17 11:27:00,
2013-01-17 04:30:00,47.7,22.7,30.21,NNW,331,5.0,7.0,37,0.00,,,0.00,0,WeatherHawk,2013-01-17 11:30:00,
2013-01-17 04:32:00,47.7,22.7,30.21,NNW,333,6.0,7.0,37,0.00,,,0.00,0,WeatherHawk,2013-01-17 11:32:00,
2013-01-17 04:33:00,47.7,22.7,30.21,NW,325,5.0,7.0,37,0.00,,,0.00,1,WeatherHawk,2013-01-17 11:33:00,
2013-01-17 04:37:00,47.7,22.7,30.21,NW,322,5.0,7.0,37,0.00,,,0.00,0,WeatherHawk,2013-01-17 11:37:00,
2013-01-17 04:38:00,47.7,22.7,30.21,NW,323,4.0,6.0,37,0.00,,,0.00,0,WeatherHawk,2013-01-17 11:38:00,
2013-01-17 04:39:00,47.7,22.7,30.21,NNW,332,4.0,6.0,37,0.00,,,0.00,0,WeatherHawk,2013-01-17 11:39:00,
2013-01-17 04:42:00,47.8,22.2,30.21,NNW,330,4.0,6.0,36,0.00,,,0.00,0,WeatherHawk,2013-01-17 11:42:00,
2013-01-17 04:45:00,48.0,22.4,30.21,NNW,332,4.0,6.0,36,0.00,,,0.00,0,WeatherHawk,2013-01-17 11:45:00,
2013-01-17 04:46:00,48.0,22.4,30.21,NNW,331,4.0,6.0,36,0.00,,,0.00,1,WeatherHawk,2013-01-17 11:46:00,
2013-01-17 04:47:00,48.0,22.4,30.21,NNW,330,4.0,5.0,36,0.00,,,0.00,0,WeatherHawk,2013-01-17 11:47:00,
2013-01-17 04:52:00,48.2,21.8,30.21,NNW,333,4.0,5.0,35,0.00,,,0.00,0,WeatherHawk,2013-01-17 11:52:00,
2013-01-17 04:53:00,48.2,21.8,30.21,NNW,335,4.0,5.0,35,0.00,,,0.00,0,WeatherHawk,2013-01-17 11:53:00,
2013-01-17 04:57:00,48.4,22.0,30.21,NNW,330,6.0,6.0,35,0.00,,,0.00,1,WeatherHawk,2013-01-17 11:57:00,
2013-01-17 04:59:00,48.6,22.2,30.21,NNW,329,5.0,6.0,35,0.00,,,0.00,0,WeatherHawk,2013-01-17 11:59:00,
2013-01-17 05:01:00,48.6,22.2,30.21,NNW,330,6.0,6.0,35,0.00,,,0.00,0,WeatherHawk,2013-01-17 12:01:00,
2013-01-17 05:02:00,48.6,22.2,30.21,NNW,330,6.0,6.0,35,0.00,,,0.00,0,WeatherHawk,2013-01-17 12:02:00,
2013-01-17 05:03:00,48.6,22.2,30.21,NNW,329,6.0,6.0,35,0.00,,,0.00,1,WeatherHawk,2013-01-17 12:03:00,
2013-01-17 05:06:00,48.6,21.5,30.21,NNW,333,7.0,7.0,34,0.00,,,0.00,1,WeatherHawk,2013-01-17 12:06:00,
2013-01-17 05:09:00,48.7,21.6,30.21,NNW,347,6.0,7.0,34,0.00,,,0.00,0,WeatherHawk,2013-01-17 12:09:00,
2013-01-17 05:11:00,48.7,21.6,30.21,North,351,6.0,7.0,34,0.00,,,0.00,0,WeatherHawk,2013-01-17 12:11:00,
2013-01-17 05:12:00,48.7,21.6,30.21,North,351,7.0,7.0,34,0.00,,,0.00,0,WeatherHawk,2013-01-17 12:12:00,
2013-01-17 05:14:00,48.7,21.6,30.21,North,352,7.0,7.0,34,0.00,,,0.00,0,WeatherHawk,2013-01-17 12:14:00,
2013-01-17 05:17:00,48.7,22.3,30.21,North,9,7.0,9.0,35,0.00,,,0.00,0,WeatherHawk,2013-01-17 12:17:00,
2013-01-17 05:19:00,48.6,22.2,30.21,North,7,7.0,9.0,35,0.00,,,0.00,0,WeatherHawk,2013-01-17 12:19:00,
2013-01-17 05:21:00,48.6,22.2,30.21,North,3,9.0,9.0,35,0.00,,,0.00,0,WeatherHawk,2013-01-17 12:21:00,
2013-01-17 05:24:00,48.9,21.8,30.21,North,2,9.0,9.0,34,0.00,,,0.00,0,WeatherHawk,2013-01-17 12:24:00,
2013-01-17 05:26:00,49.3,21.4,30.21,North,0,9.0,9.0,33,0.00,,,0.00,0,WeatherHawk,2013-01-17 12:26:00,
2013-01-17 05:27:00,49.3,21.4,30.21,North,1,9.0,9.0,33,0.00,,,0.00,0,WeatherHawk,2013-01-17 12:27:00,
2013-01-17 05:30:00,48.2,22.5,30.21,NNW,338,6.0,10.0,36,0.00,,,0.00,0,WeatherHawk,2013-01-17 12:30:00,
2013-01-17 05:31:00,47.8,22.8,30.21,NNW,333,6.0,10.0,37,0.00,,,0.00,0,WeatherHawk,2013-01-17 12:31:00,
2013-01-17 05:32:00,47.8,22.8,30.21,NNW,333,6.0,10.0,37,0.00,,,0.00,0,WeatherHawk,2013-01-17 12:32:00,
2013-01-17 05:33:00,47.8,22.8,30.21,NNW,338,5.0,10.0,37,0.00,,,0.00,0,WeatherHawk,2013-01-17 12:33:00,
2013-01-17 05:37:00,47.5,22.5,30.21,NNW,334,5.0,10.0,37,0.00,,,0.00,0,WeatherHawk,2013-01-17 12:37:00,
2013-01-17 05:38:00,47.1,22.8,30.21,NNW,330,5.0,9.0,38,0.00,,,0.00,0,WeatherHawk,2013-01-17 12:38:00,
2013-01-17 05:42:00,47.5,22.5,30.21,NNW,334,5.0,-999.0,37,0.00,,,0.00,0,WeatherHawk,2013-01-17 12:42:00,
2013-01-17 05:44:00,47.5,22.5,30.21,NW,313,5.0,9.0,37,0.00,,,0.00,0,WeatherHawk,2013-01-17 12:44:00,
2013-01-17 05:45:00,47.5,22.5,30.21,NW,307,4.0,9.0,37,0.00,,,0.00,0,WeatherHawk,2013-01-17 12:45:00,
2013-01-17 05:47:00,47.1,22.2,30.21,WNW,301,5.0,9.0,37,0.00,,,0.00,0,WeatherHawk,2013-01-17 12:47:00,
2013-01-17 05:49:00,46.4,22.2,30.21,WNW,302,3.0,6.0,38,0.00,,,0.00,0,WeatherHawk,2013-01-17 12:49:00,
2013-01-17 05:50:00,46.2,22.0,30.21,NW,305,4.0,6.0,38,0.00,,,0.00,0,WeatherHawk,2013-01-17 12:50:00,
2013-01-17 05:51:00,46.2,22.0,30.21,NW,315,4.0,6.0,38,0.00,,,0.00,0,WeatherHawk,2013-01-17 12:51:00,
2013-01-17 05:53:00,46.6,21.7,30.21,NNW,329,4.0,6.0,37,0.00,,,0.00,1,WeatherHawk,2013-01-17 12:53:00,
2013-01-17 05:55:00,47.1,22.2,30.21,NW,320,5.0,6.0,37,0.00,,,0.00,0,WeatherHawk,2013-01-17 12:55:00,
2013-01-17 06:00:00,48.0,21.7,30.21,NNW,342,5.0,5.0,35,0.00,,,0.00,0,WeatherHawk,2013-01-17 13:00:00,
2013-01-17 06:01:00,48.4,22.0,30.21,North,0,4.0,5.0,35,0.00,,,0.00,0,WeatherHawk,2013-01-17 13:01:00,
2013-01-17 06:02:00,48.4,22.0,30.21,North,0,4.0,-999.0,35,0.00,,,0.00,0,WeatherHawk,2013-01-17 13:02:00,
2013-01-17 06:03:00,48.9,21.8,30.21,NNW,345,5.0,5.0,34,0.00,,,0.00,0,WeatherHawk,2013-01-17 13:03:00,
2013-01-17 06:06:00,49.5,21.6,30.21,North,351,5.0,5.0,33,0.00,,,0.00,0,WeatherHawk,2013-01-17 13:06:00,
2013-01-17 06:07:00,49.5,21.6,30.21,North,351,5.0,5.0,33,0.00,,,0.00,0,WeatherHawk,2013-01-17 13:07:00,
2013-01-17 06:12:00,50.0,21.3,30.21,North,355,5.0,6.0,32,0.00,,,0.00,0,WeatherHawk,2013-01-17 13:12:00,
2013-01-17 06:14:00,50.0,21.3,30.21,NNW,344,6.0,6.0,32,0.00,,,0.00,0,WeatherHawk,2013-01-17 13:14:00,
2013-01-17 06:19:00,50.0,21.3,30.21,North,359,6.0,7.0,32,0.00,,,0.00,0,WeatherHawk,2013-01-17 13:19:00,
2013-01-17 06:20:00,50.0,21.3,30.21,North,8,5.0,7.0,32,0.00,,,0.00,1,WeatherHawk,2013-01-17 13:20:00,
2013-01-17 06:22:00,49.8,21.2,30.21,North,7,5.0,7.0,32,0.00,,,0.00,0,WeatherHawk,2013-01-17 13:22:00,
2013-01-17 06:25:00,49.6,21.0,30.22,North,0,6.0,7.0,32,0.00,,,0.00,0,WeatherHawk,2013-01-17 13:25:00,
2013-01-17 06:26:00,49.6,21.7,30.22,North,0,6.0,7.0,33,0.00,,,0.00,0,WeatherHawk,2013-01-17 13:26:00,
2013-01-17 06:27:00,49.6,21.7,30.22,North,0,6.0,7.0,33,0.00,,,0.00,0,WeatherHawk,2013-01-17 13:27:00,
2013-01-17 06:30:00,49.3,21.4,30.22,North,358,6.0,6.0,33,0.00,,,0.00,0,WeatherHawk,2013-01-17 13:30:00,
2013-01-17 06:31:00,49.1,21.3,30.22,North,354,7.0,7.0,33,0.00,,,0.00,0,WeatherHawk,2013-01-17 13:31:00,
2013-01-17 06:32:00,49.1,21.3,30.22,North,354,7.0,7.0,33,0.00,,,0.00,0,WeatherHawk,2013-01-17 13:32:00,
2013-01-17 06:36:00,48.4,21.3,30.22,North,6,8.0,8.0,34,0.00,,,0.00,0,WeatherHawk,2013-01-17 13:36:00,
2013-01-17 06:37:00,48.4,21.3,30.22,North,5,8.0,9.0,34,0.00,,,0.00,0,WeatherHawk,2013-01-17 13:37:00,
2013-01-17 06:41:00,48.0,21.7,30.22,North,4,8.0,9.0,35,0.00,,,0.00,0,WeatherHawk,2013-01-17 13:41:00,
2013-01-17 06:42:00,48.0,21.7,30.22,North,7,9.0,9.0,35,0.00,,,0.00,0,WeatherHawk,2013-01-17 13:42:00,
2013-01-17 06:43:00,48.0,21.7,30.22,North,11,9.0,9.0,35,0.00,,,0.00,0,WeatherHawk,2013-01-17 13:43:00,
2013-01-17 06:49:00,48.6,21.5,30.22,North,10,9.0,10.0,34,0.00,,,0.00,0,WeatherHawk,2013-01-17 13:49:00,
2013-01-17 06:51:00,48.7,21.6,30.22,North,10,9.0,10.0,34,0.00,,,0.00,0,WeatherHawk,2013-01-17 13:51:00,
2013-01-17 06:55:00,48.9,21.1,30.22,North,10,9.0,10.0,33,0.00,,,0.00,0,WeatherHawk,2013-01-17 13:55:00,
2013-01-17 06:56:00,48.9,21.1,30.22,NNE,13,9.0,10.0,33,0.00,,,0.00,0,WeatherHawk,2013-01-17 13:56:00,
2013-01-17 06:57:00,48.9,21.1,30.22,NNE,13,9.0,-999.0,33,0.00,,,0.00,0,WeatherHawk,2013-01-17 13:57:00,
2013-01-17 06:59:00,49.1,21.3,30.22,NNE,12,8.0,9.0,33,0.00,,,0.00,0,WeatherHawk,2013-01-17 13:59:00,
2013-01-17 07:01:00,49.1,21.3,30.22,NNE,14,7.0,9.0,33,0.00,,,0.00,0,WeatherHawk,2013-01-17 14:01:00,
2013-01-17 07:04:00,48.7,20.9,30.22,NNE,17,7.0,9.0,33,0.00,,,0.00,0,WeatherHawk,2013-01-17 14:04:00,
2013-01-17 07:06:00,48.7,20.9,30.23,NNE,20,7.0,9.0,33,0.00,,,0.00,0,WeatherHawk,2013-01-17 14:06:00,
2013-01-17 07:07:00,48.6,20.8,30.23,NNE,21,8.0,9.0,33,0.00,,,0.00,0,WeatherHawk,2013-01-17 14:07:00,
2013-01-17 07:08:00,48.6,20.8,30.23,NNE,20,6.0,9.0,33,0.00,,,0.00,0,WeatherHawk,2013-01-17 14:08:00,
2013-01-17 07:11:00,48.4,21.3,30.23,NNE,17,7.0,9.0,34,0.00,,,0.00,1,WeatherHawk,2013-01-17 14:11:00,
2013-01-17 07:12:00,48.4,21.3,30.23,NNE,17,7.0,-999.0,34,0.00,,,0.00,1,WeatherHawk,2013-01-17 14:12:00,
2013-01-17 07:13:00,48.4,21.3,30.23,NNE,15,7.0,9.0,34,0.00,,,0.00,0,WeatherHawk,2013-01-17 14:13:00,
2013-01-17 07:14:00,48.4,21.3,30.23,NNE,14,7.0,9.0,34,0.00,,,0.00,0,WeatherHawk,2013-01-17 14:14:00,
2013-01-17 07:17:00,48.4,21.3,30.23,North,11,8.0,-999.0,34,0.00,,,0.00,0,WeatherHawk,2013-01-17 14:17:00,
2013-01-17 07:18:00,48.4,21.3,30.23,North,11,8.0,8.0,34,0.00,,,0.00,0,WeatherHawk,2013-01-17 14:18:00,
2013-01-17 07:19:00,48.4,21.3,30.23,North,8,9.0,9.0,34,0.00,,,0.00,0,WeatherHawk,2013-01-17 14:19:00,
2013-01-17 07:24:00,48.2,21.8,30.23,North,5,8.0,8.0,35,0.00,,,0.00,0,WeatherHawk,2013-01-17 14:24:00,
2013-01-17 07:25:00,48.2,21.8,30.23,North,4,8.0,8.0,35,0.00,,,0.00,1,WeatherHawk,2013-01-17 14:25:00,
2013-01-17 07:26:00,48.2,21.8,30.23,North,4,8.0,8.0,35,0.00,,,0.00,1,WeatherHawk,2013-01-17 14:26:00,
2013-01-17 07:31:00,48.2,21.8,30.23,North,8,7.0,9.0,35,0.00,,,0.00,3,WeatherHawk,2013-01-17 14:31:00,
2013-01-17 07:32:00,48.2,21.8,30.23,North,8,7.0,9.0,35,0.00,,,0.00,3,WeatherHawk,2013-01-17 14:32:00,
2013-01-17 07:34:00,48.0,21.7,30.23,North,10,7.0,9.0,35,0.00,,,0.00,4,WeatherHawk,2013-01-17 14:34:00,
2013-01-17 07:37:00,48.0,21.7,30.23,North,6,8.0,9.0,35,0.00,,,0.00,5,WeatherHawk,2013-01-17 14:37:00,
2013-01-17 07:42:00,48.2,21.8,30.23,North,5,9.0,9.0,35,0.00,,,0.00,6,WeatherHawk,2013-01-17 14:42:00,
2013-01-17 07:43:00,48.0,21.7,30.23,North,4,8.0,8.0,35,0.00,,,0.00,11,WeatherHawk,2013-01-17 14:43:00,
2013-01-17 07:47:00,48.2,21.2,30.23,North,1,9.0,9.0,34,0.00,,,0.00,18,WeatherHawk,2013-01-17 14:47:00,
2013-01-17 07:51:00,48.4,21.3,30.23,North,5,9.0,11.0,34,0.00,,,0.00,29,WeatherHawk,2013-01-17 14:51:00,
2013-01-17 07:52:00,48.4,21.3,30.23,North,8,10.0,11.0,34,0.00,,,0.00,30,WeatherHawk,2013-01-17 14:52:00,
2013-01-17 07:53:00,48.4,21.3,30.23,North,6,10.0,11.0,34,0.00,,,0.00,30,WeatherHawk,2013-01-17 14:53:00,
2013-01-17 07:55:00,48.7,21.6,30.23,NNE,13,11.0,11.0,34,0.00,,,0.00,35,WeatherHawk,2013-01-17 14:55:00,
2013-01-17 07:57:00,48.7,21.6,30.23,North,8,10.0,-999.0,34,0.00,,,0.00,39,WeatherHawk,2013-01-17 14:57:00,
2013-01-17 07:58:00,48.7,21.6,30.24,North,7,10.0,12.0,34,0.00,,,0.00,43,WeatherHawk,2013-01-17 14:58:00,
2013-01-17 08:01:00,49.1,21.3,30.24,North,8,9.0,12.0,33,0.00,,,0.00,47,WeatherHawk,2013-01-17 15:01:00,
2013-01-17 08:04:00,49.1,21.3,30.24,North,0,11.0,12.0,33,0.00,,,0.00,55,WeatherHawk,2013-01-17 15:04:00,
2013-01-17 08:05:00,49.1,21.3,30.24,North,6,11.0,12.0,33,0.00,,,0.00,57,WeatherHawk,2013-01-17 15:05:00,
2013-01-17 08:07:00,49.1,21.3,30.24,North,6,11.0,12.0,33,0.00,,,0.00,60,WeatherHawk,2013-01-17 15:07:00,
2013-01-17 08:10:00,48.9,21.1,30.24,North,2,10.0,13.0,33,0.00,,,0.00,71,WeatherHawk,2013-01-17 15:10:00,
2013-01-17 08:11:00,48.9,21.1,30.24,North,1,10.0,13.0,33,0.00,,,0.00,72,WeatherHawk,2013-01-17 15:11:00,
2013-01-17 08:12:00,48.9,21.1,30.24,North,1,10.0,13.0,33,0.00,,,0.00,72,WeatherHawk,2013-01-17 15:12:00,
2013-01-17 08:16:00,49.1,21.3,30.24,North,2,10.0,13.0,33,0.00,,,0.00,82,WeatherHawk,2013-01-17 15:16:00,
2013-01-17 08:17:00,49.3,21.4,30.24,North,1,9.0,13.0,33,0.00,,,0.00,84,WeatherHawk,2013-01-17 15:17:00,
2013-01-17 08:21:00,50.0,21.3,30.24,North,2,10.0,11.0,32,0.00,,,0.00,97,WeatherHawk,2013-01-17 15:21:00,
2013-01-17 08:22:00,49.8,21.2,30.24,North,2,10.0,11.0,32,0.00,,,0.00,99,WeatherHawk,2013-01-17 15:22:00,
2013-01-17 08:25:00,49.6,21.0,30.24,North,3,8.0,11.0,32,0.00,,,0.00,106,WeatherHawk,2013-01-17 15:25:00,
2013-01-17 08:26:00,49.6,21.7,30.24,North,0,8.0,11.0,33,0.00,,,0.00,110,WeatherHawk,2013-01-17 15:26:00,
2013-01-17 08:27:00,49.6,21.7,30.24,North,0,8.0,-999.0,33,0.00,,,0.00,110,WeatherHawk,2013-01-17 15:27:00,
2013-01-17 08:31:00,50.2,21.5,30.25,North,0,7.0,12.0,32,0.00,,,0.00,123,WeatherHawk,2013-01-17 15:31:00,
2013-01-17 08:34:00,50.2,21.5,30.25,North,358,8.0,12.0,32,0.00,,,0.00,131,WeatherHawk,2013-01-17 15:34:00,
2013-01-17 08:36:00,50.4,21.6,30.25,NNW,347,8.0,12.0,32,0.00,,,0.00,136,WeatherHawk,2013-01-17 15:36:00,
2013-01-17 08:37:00,50.4,21.6,30.25,NNW,347,8.0,12.0,32,0.00,,,0.00,136,WeatherHawk,2013-01-17 15:37:00,
2013-01-17 08:41:00,48.9,25.1,30.25,NW,313,5.0,11.0,39,0.00,,,0.00,150,WeatherHawk,2013-01-17 15:41:00,
2013-01-17 08:42:00,48.7,24.9,30.25,NW,309,5.0,-999.0,39,0.00,,,0.00,151,WeatherHawk,2013-01-17 15:42:00,
2013-01-17 08:46:00,48.4,25.2,30.25,NW,318,5.0,11.0,40,0.00,,,0.00,164,WeatherHawk,2013-01-17 15:46:00,
2013-01-17 08:47:00,48.4,25.2,30.25,NW,318,5.0,11.0,40,0.00,,,0.00,164,WeatherHawk,2013-01-17 15:47:00,
2013-01-17 08:52:00,48.9,25.1,30.25,NW,320,5.0,6.0,39,0.00,,,0.00,179,WeatherHawk,2013-01-17 15:52:00,
2013-01-17 08:53:00,49.1,25.2,30.25,NW,317,5.0,6.0,39,0.00,,,0.00,185,WeatherHawk,2013-01-17 15:53:00,
2013-01-17 08:56:00,49.5,24.9,30.26,NW,320,6.0,6.0,38,0.00,,,0.00,195,WeatherHawk,2013-01-17 15:56:00,
2013-01-17 08:58:00,49.6,25.1,30.26,NW,323,6.0,0.0,38,0.00,,,0.00,203,WeatherHawk,2013-01-17 15:58:00,
2013-01-17 08:59:00,49.6,25.1,30.26,NW,325,7.0,0.0,38,0.00,,,0.00,203,WeatherHawk,2013-01-17 15:59:00,
2013-01-17 09:01:00,50.0,25.4,30.26,NNW,332,6.0,0.0,38,0.00,,,0.00,209,WeatherHawk,2013-01-17 16:01:00,
2013-01-17 09:04:00,50.4,25.1,30.26,NNW,348,9.0,0.0,37,0.00,,,0.00,218,WeatherHawk,2013-01-17 16:04:00,
2013-01-17 09:05:00,50.5,25.2,30.26,North,349,7.0,0.0,37,0.00,,,0.00,222,WeatherHawk,2013-01-17 16:05:00,
2013-01-17 09:07:00,50.7,24.1,30.26,North,351,11.0,0.0,35,0.00,,,0.00,217,WeatherHawk,2013-01-17 16:07:00,
2013-01-17 09:09:00,52.5,22.8,30.26,North,2,12.0,12.0,31,0.00,,,0.00,233,WeatherHawk,2013-01-17 16:09:00,
2013-01-17 09:11:00,53.1,22.5,30.26,North,1,11.0,11.0,30,0.00,,,0.00,240,WeatherHawk,2013-01-17 16:11:00,
2013-01-17 09:13:00,53.4,22.8,30.26,North,4,12.0,12.0,30,0.00,,,0.00,245,WeatherHawk,2013-01-17 16:13:00,
2013-01-17 09:15:00,53.6,22.1,30.26,North,4,10.0,11.0,29,0.00,,,0.00,252,WeatherHawk,2013-01-17 16:15:00,
2013-01-17 09:16:00,53.6,22.1,30.26,North,6,12.0,-999.0,29,0.00,,,0.00,254,WeatherHawk,2013-01-17 16:16:00,
2013-01-17 09:21:00,53.8,22.3,30.26,North,3,12.0,-999.0,29,0.00,,,0.00,268,WeatherHawk,2013-01-17 16:21:00,
2013-01-17 09:22:00,54.0,22.4,30.26,North,3,12.0,15.0,29,0.00,,,0.00,271,WeatherHawk,2013-01-17 16:22:00,
2013-01-17 09:26:00,54.1,22.6,30.27,NNE,12,11.0,-999.0,29,0.00,,,0.00,284,WeatherHawk,2013-01-17 16:26:00,
2013-01-17 09:29:00,54.3,22.7,30.27,North,8,10.0,13.0,29,0.00,,,0.00,293,WeatherHawk,2013-01-17 16:29:00,
2013-01-17 09:30:00,54.3,23.6,30.27,North,8,11.0,13.0,30,0.00,,,0.00,297,WeatherHawk,2013-01-17 16:30:00,
2013-01-17 09:31:00,54.5,22.9,30.27,North,9,12.0,13.0,29,0.00,,,0.00,299,WeatherHawk,2013-01-17 16:31:00,
2013-01-17 09:36:00,54.9,22.4,30.27,North,1,10.0,13.0,28,0.00,,,0.00,314,WeatherHawk,2013-01-17 16:36:00,
2013-01-17 09:39:00,55.2,21.8,30.27,North,4,12.0,14.0,27,0.00,,,0.00,324,WeatherHawk,2013-01-17 16:39:00,
2013-01-17 09:40:00,55.2,21.8,30.27,North,3,11.0,14.0,27,0.00,,,0.00,326,WeatherHawk,2013-01-17 16:40:00,
2013-01-17 09:42:00,55.4,22.0,30.27,North,357,8.0,14.0,27,0.00,,,0.00,324,WeatherHawk,2013-01-17 16:42:00,
2013-01-17 09:44:00,55.6,22.1,30.27,North,359,11.0,14.0,27,0.00,,,0.00,337,WeatherHawk,2013-01-17 16:44:00,
2013-01-17 09:46:00,55.8,21.4,30.27,North,356,10.0,14.0,26,0.00,,,0.00,343,WeatherHawk,2013-01-17 16:46:00,
2013-01-17 09:47:00,55.9,21.6,30.27,North,5,11.0,0.0,26,0.00,,,0.00,345,WeatherHawk,2013-01-17 16:47:00,
2013-01-17 09:51:00,56.3,21.9,30.27,North,2,11.0,15.0,26,0.00,,,0.00,358,WeatherHawk,2013-01-17 16:51:00,
2013-01-17 09:54:00,56.5,22.9,30.27,North,9,11.0,15.0,27,0.00,,,0.00,365,WeatherHawk,2013-01-17 16:54:00,
2013-01-17 09:56:00,56.7,22.2,30.27,North,1,11.0,15.0,26,0.00,,,0.00,372,WeatherHawk,2013-01-17 16:56:00,
2013-01-17 09:57:00,56.7,22.2,30.27,North,7,12.0,14.0,26,0.00,,,0.00,369,WeatherHawk,2013-01-17 16:57:00,
2013-01-17 10:00:00,57.0,22.5,30.27,NNE,13,11.0,14.0,26,0.00,,,0.00,383,WeatherHawk,2013-01-17 17:00:00,
2013-01-17 10:05:00,57.6,22.0,30.28,North,1,13.0,14.0,25,0.00,,,0.00,396,WeatherHawk,2013-01-17 17:05:00,
2013-01-17 10:07:00,57.6,22.0,30.28,North,357,13.0,0.0,25,0.00,,,0.00,402,WeatherHawk,2013-01-17 17:07:00,
2013-01-17 10:08:00,57.7,22.2,30.28,North,1,10.0,15.0,25,0.00,,,0.00,402,WeatherHawk,2013-01-17 17:08:00,
2013-01-17 10:11:00,58.1,21.5,30.28,North,6,12.0,15.0,24,0.00,,,0.00,413,WeatherHawk,2013-01-17 17:11:00,
2013-01-17 10:15:00,58.3,21.7,30.28,North,358,12.0,15.0,24,0.00,,,0.00,424,WeatherHawk,2013-01-17 17:15:00,
2013-01-17 10:17:00,58.5,21.8,30.28,North,0,11.0,15.0,24,0.00,,,0.00,430,WeatherHawk,2013-01-17 17:17:00,
2013-01-17 10:19:00,58.5,21.8,30.28,NNE,15,15.0,15.0,24,0.00,,,0.00,434,WeatherHawk,2013-01-17 17:19:00,
2013-01-17 10:22:00,58.6,21.0,30.28,North,357,15.0,15.0,23,0.00,,,0.00,442,WeatherHawk,2013-01-17 17:22:00,
2013-01-17 10:24:00,58.6,22.0,30.28,North,357,11.0,15.0,24,0.00,,,0.00,445,WeatherHawk,2013-01-17 17:24:00,
2013-01-17 10:26:00,58.6,22.0,30.27,North,0,13.0,15.0,24,0.00,,,0.00,450,WeatherHawk,2013-01-17 17:26:00,
2013-01-17 10:30:00,59.0,21.3,30.27,North,1,16.0,0.0,23,0.00,,,0.00,460,WeatherHawk,2013-01-17 17:30:00,
2013-01-17 10:31:00,59.2,20.4,30.27,North,354,17.0,0.0,22,0.00,,,0.00,462,WeatherHawk,2013-01-17 17:31:00,
2013-01-17 10:32:00,59.2,20.4,30.27,North,8,17.0,0.0,22,0.00,,,0.00,466,WeatherHawk,2013-01-17 17:32:00,
2013-01-17 10:36:00,59.4,20.5,30.27,North,3,17.0,0.0,22,0.00,,,0.00,475,WeatherHawk,2013-01-17 17:36:00,
2013-01-17 10:39:00,59.7,20.8,30.27,North,359,14.0,21.0,22,0.00,,,0.00,482,WeatherHawk,2013-01-17 17:39:00,
2013-01-17 10:41:00,59.7,21.9,30.27,North,0,12.0,21.0,23,0.00,,,0.00,487,WeatherHawk,2013-01-17 17:41:00,
2013-01-17 10:44:00,60.1,21.1,30.27,North,2,16.0,21.0,22,0.00,,,0.00,496,WeatherHawk,2013-01-17 17:44:00,
2013-01-17 10:46:00,60.3,21.3,30.27,North,7,20.0,21.0,22,0.00,,,0.00,498,WeatherHawk,2013-01-17 17:46:00,
2013-01-17 10:49:00,60.4,20.3,30.26,North,10,16.0,0.0,21,0.00,,,0.00,506,WeatherHawk,2013-01-17 17:49:00,
2013-01-17 10:51:00,60.4,20.3,30.26,NNE,13,19.0,0.0,21,0.00,,,0.00,509,WeatherHawk,2013-01-17 17:51:00,
2013-01-17 10:56:00,60.6,20.5,30.26,North,11,19.0,0.0,21,0.00,,,0.00,519,WeatherHawk,2013-01-17 17:56:00,
2013-01-17 10:59:00,60.6,20.5,30.26,North,7,20.0,23.0,21,0.00,,,0.00,528,WeatherHawk,2013-01-17 17:59:00,
2013-01-17 11:01:00,60.8,19.5,30.26,NNE,14,18.0,23.0,20,0.00,,,0.00,528,WeatherHawk,2013-01-17 18:01:00,
2013-01-17 11:02:00,61.0,19.6,30.26,NNE,14,15.0,23.0,20,0.00,,,0.00,532,WeatherHawk,2013-01-17 18:02:00,
2013-01-17 11:07:00,61.2,20.9,30.26,NNE,17,18.0,0.0,21,0.00,,,0.00,540,WeatherHawk,2013-01-17 18:07:00,
2013-01-17 11:08:00,61.2,19.8,30.25,North,10,22.0,0.0,20,0.00,,,0.00,544,WeatherHawk,2013-01-17 18:08:00,
2013-01-17 11:10:00,61.2,19.8,30.25,North,4,20.0,0.0,20,0.00,,,0.00,547,WeatherHawk,2013-01-17 18:10:00,
2013-01-17 11:11:00,61.2,19.8,30.25,NNE,18,20.0,0.0,20,0.00,,,0.00,545,WeatherHawk,2013-01-17 18:11:00,
2013-01-17 11:12:00,61.3,19.9,30.25,North,7,19.0,0.0,20,0.00,,,0.00,550,WeatherHawk,2013-01-17 18:12:00,
2013-01-17 11:15:00,61.5,20.1,30.25,North,6,21.0,0.0,20,0.00,,,0.00,559,WeatherHawk,2013-01-17 18:15:00,
2013-01-17 11:16:00,61.5,20.1,30.25,North,6,21.0,0.0,20,0.00,,,0.00,559,WeatherHawk,2013-01-17 18:16:00,
2013-01-17 11:17:00,61.3,19.9,30.25,North,7,17.0,24.0,20,0.00,,,0.00,561,WeatherHawk,2013-01-17 18:17:00,
2013-01-17 11:21:00,61.7,20.2,30.25,NNE,25,17.0,24.0,20,0.00,,,0.00,566,WeatherHawk,2013-01-17 18:21:00,
2013-01-17 11:22:00,61.9,20.4,30.25,NNE,19,16.0,24.0,20,0.00,,,0.00,569,WeatherHawk,2013-01-17 18:22:00,
2013-01-17 11:26:00,62.1,20.5,30.25,North,8,19.0,24.0,20,0.00,,,0.00,572,WeatherHawk,2013-01-17 18:26:00,
2013-01-17 11:29:00,62.1,20.5,30.25,North,7,14.0,0.0,20,0.00,,,0.00,573,WeatherHawk,2013-01-17 18:29:00,
2013-01-17 11:31:00,62.2,20.7,30.25,North,6,16.0,-999.0,20,0.00,,,0.00,581,WeatherHawk,2013-01-17 18:31:00,
2013-01-17 11:33:00,62.2,20.7,30.24,NNE,18,17.0,0.0,20,0.00,,,0.00,585,WeatherHawk,2013-01-17 18:33:00,
2013-01-17 11:35:00,62.4,19.6,30.24,NNE,14,19.0,0.0,19,0.00,,,0.00,586,WeatherHawk,2013-01-17 18:35:00,
2013-01-17 11:36:00,62.4,19.6,30.24,NNE,14,19.0,-999.0,19,0.00,,,0.00,586,WeatherHawk,2013-01-17 18:36:00,
2013-01-17 11:37:00,62.4,20.8,30.24,NNE,19,18.0,0.0,20,0.00,,,0.00,592,WeatherHawk,2013-01-17 18:37:00,
2013-01-17 11:40:00,62.4,20.8,30.24,NNE,23,15.0,0.0,20,0.00,,,0.00,592,WeatherHawk,2013-01-17 18:40:00,
2013-01-17 11:41:00,62.4,20.8,30.24,NNE,23,15.0,0.0,20,0.00,,,0.00,592,WeatherHawk,2013-01-17 18:41:00,
2013-01-17 11:46:00,62.8,19.9,30.24,NNE,13,19.0,0.0,19,0.00,,,0.00,601,WeatherHawk,2013-01-17 18:46:00,
2013-01-17 11:47:00,62.6,19.8,30.23,NNE,13,19.0,0.0,19,0.00,,,0.00,602,WeatherHawk,2013-01-17 18:47:00,
2013-01-17 11:48:00,62.6,19.8,30.23,NNE,18,20.0,0.0,19,0.00,,,0.00,608,WeatherHawk,2013-01-17 18:48:00,
2013-01-17 11:51:00,62.6,19.8,30.23,NNE,13,23.0,0.0,19,0.00,,,0.00,612,WeatherHawk,2013-01-17 18:51:00,
2013-01-17 11:53:00,62.6,19.8,30.23,NNE,17,21.0,0.0,19,0.00,,,0.00,606,WeatherHawk,2013-01-17 18:53:00,
2013-01-17 11:55:00,62.4,19.6,30.23,NNE,12,21.0,0.0,19,0.00,,,0.00,614,WeatherHawk,2013-01-17 18:55:00,
2013-01-17 11:56:00,62.4,19.6,30.23,NNE,12,21.0,0.0,19,0.00,,,0.00,614,WeatherHawk,2013-01-17 18:56:00,
2013-01-17 11:58:00,62.4,19.6,30.23,North,4,21.0,0.0,19,0.00,,,0.00,616,WeatherHawk,2013-01-17 18:58:00,
2013-01-17 12:01:00,62.6,19.8,30.22,NNE,15,22.0,0.0,19,0.00,,,0.00,620,WeatherHawk,2013-01-17 19:01:00,
2013-01-17 12:03:00,62.8,19.9,30.22,NNE,21,18.0,0.0,19,0.00,,,0.00,621,WeatherHawk,2013-01-17 19:03:00,
2013-01-17 12:07:00,62.8,19.9,30.22,North,9,20.0,24.0,19,0.00,,,0.00,625,WeatherHawk,2013-01-17 19:07:00,
2013-01-17 12:09:00,63.0,20.1,30.22,NNE,19,18.0,23.0,19,0.00,,,0.00,626,WeatherHawk,2013-01-17 19:09:00,
2013-01-17 12:11:00,63.0,20.1,30.22,North,7,19.0,23.0,19,0.00,,,0.00,628,WeatherHawk,2013-01-17 19:11:00,
2013-01-17 12:12:00,63.0,20.1,30.22,North,9,21.0,23.0,19,0.00,,,0.00,628,WeatherHawk,2013-01-17 19:12:00,
2013-01-17 12:14:00,63.0,20.1,30.22,North,1,17.0,23.0,19,0.00,,,0.00,627,WeatherHawk,2013-01-17 19:14:00,
2013-01-17 12:15:00,63.3,20.4,30.22,North,11,19.0,23.0,19,0.00,,,0.00,630,WeatherHawk,2013-01-17 19:15:00,
2013-01-17 12:17:00,63.5,20.5,30.22,North,2,18.0,-999.0,19,0.00,,,0.00,631,WeatherHawk,2013-01-17 19:17:00,
2013-01-17 12:19:00,63.5,19.2,30.21,North,11,20.0,23.0,18,0.00,,,0.00,632,WeatherHawk,2013-01-17 19:19:00,
2013-01-17 12:22:00,63.5,20.5,30.21,North,0,17.0,-999.0,19,0.00,,,0.00,634,WeatherHawk,2013-01-17 19:22:00,
2013-01-17 12:27:00,63.9,19.5,30.21,North,7,19.0,23.0,18,0.00,,,0.00,639,WeatherHawk,2013-01-17 19:27:00,
2013-01-17 12:29:00,63.5,19.2,30.21,North,9,17.0,22.0,18,0.00,,,0.00,638,WeatherHawk,2013-01-17 19:29:00,
2013-01-17 12:35:00,64.2,21.1,30.21,North,8,17.0,22.0,19,0.00,,,0.00,640,WeatherHawk,2013-01-17 19:35:00,
2013-01-17 12:36:00,64.0,21.0,30.21,North,4,19.0,22.0,19,0.00,,,0.00,639,WeatherHawk,2013-01-17 19:36:00,
2013-01-17 12:40:00,63.9,19.5,30.20,North,0,18.0,23.0,18,0.00,,,0.00,641,WeatherHawk,2013-01-17 19:40:00,
2013-01-17 12:42:00,63.9,19.5,30.20,North,358,18.0,23.0,18,0.00,,,0.00,642,WeatherHawk,2013-01-17 19:42:00,
2013-01-17 12:45:00,64.0,19.7,30.20,North,357,17.0,23.0,18,0.00,,,0.00,641,WeatherHawk,2013-01-17 19:45:00,
2013-01-17 12:46:00,64.0,19.7,30.20,North,358,16.0,23.0,18,0.00,,,0.00,640,WeatherHawk,2013-01-17 19:46:00,
2013-01-17 12:47:00,64.0,19.7,30.20,North,358,16.0,23.0,18,0.00,,,0.00,640,WeatherHawk,2013-01-17 19:47:00,
2013-01-17 12:52:00,63.9,20.8,30.20,North,3,14.0,22.0,19,0.00,,,0.00,641,WeatherHawk,2013-01-17 19:52:00,
2013-01-17 12:54:00,64.2,19.8,30.20,North,355,14.0,22.0,18,0.00,,,0.00,642,WeatherHawk,2013-01-17 19:54:00,
2013-01-17 12:57:00,64.0,21.0,30.20,North,0,13.0,22.0,19,0.00,,,0.00,642,WeatherHawk,2013-01-17 19:57:00,
2013-01-17 13:00:00,64.4,20.0,30.19,North,354,19.0,20.0,18,0.00,,,0.00,641,WeatherHawk,2013-01-17 20:00:00,
2013-01-17 13:02:00,64.4,20.0,30.19,North,0,16.0,20.0,18,0.00,,,0.00,642,WeatherHawk,2013-01-17 20:02:00,
2013-01-17 13:05:00,64.6,21.4,30.19,North,356,16.0,20.0,19,0.00,,,0.00,639,WeatherHawk,2013-01-17 20:05:00,
2013-01-17 13:07:00,64.8,20.3,30.19,North,0,18.0,-999.0,18,0.00,,,0.00,641,WeatherHawk,2013-01-17 20:07:00,
2013-01-17 13:11:00,64.6,20.1,30.19,North,11,20.0,20.0,18,0.00,,,0.00,640,WeatherHawk,2013-01-17 20:11:00,
2013-01-17 13:12:00,64.6,20.1,30.19,NNE,17,17.0,19.0,18,0.00,,,0.00,643,WeatherHawk,2013-01-17 20:12:00,
2013-01-17 13:15:00,64.4,20.0,30.19,North,0,17.0,19.0,18,0.00,,,0.00,635,WeatherHawk,2013-01-17 20:15:00,
2013-01-17 13:17:00,64.6,20.1,30.19,North,11,15.0,19.0,18,0.00,,,0.00,634,WeatherHawk,2013-01-17 20:17:00,
2013-01-17 13:20:00,64.8,20.3,30.19,North,351,16.0,21.0,18,0.00,,,0.00,633,WeatherHawk,2013-01-17 20:20:00,
2013-01-17 13:21:00,64.8,20.3,30.18,North,356,13.0,21.0,18,0.00,,,0.00,632,WeatherHawk,2013-01-17 20:21:00,
2013-01-17 13:25:00,65.1,20.6,30.18,North,3,16.0,21.0,18,0.00,,,0.00,633,WeatherHawk,2013-01-17 20:25:00,
2013-01-17 13:27:00,65.3,20.7,30.18,North,355,17.0,21.0,18,0.00,,,0.00,629,WeatherHawk,2013-01-17 20:27:00,
2013-01-17 13:30:00,65.5,20.9,30.18,NNW,339,14.0,19.0,18,0.00,,,0.00,624,WeatherHawk,2013-01-17 20:30:00,
2013-01-17 13:32:00,65.5,20.9,30.18,North,349,18.0,-999.0,18,0.00,,,0.00,627,WeatherHawk,2013-01-17 20:32:00,
2013-01-17 13:36:00,65.7,21.0,30.17,North,355,13.0,19.0,18,0.00,,,0.00,623,WeatherHawk,2013-01-17 20:36:00,
2013-01-17 13:37:00,65.7,21.0,30.17,North,355,13.0,19.0,18,0.00,,,0.00,623,WeatherHawk,2013-01-17 20:37:00,
2013-01-17 13:42:00,65.8,21.2,30.17,NNW,347,13.0,19.0,18,0.00,,,0.00,617,WeatherHawk,2013-01-17 20:42:00,
2013-01-17 13:43:00,66.0,21.3,30.17,NNW,348,15.0,19.0,18,0.00,,,0.00,613,WeatherHawk,2013-01-17 20:43:00,
2013-01-17 13:48:00,65.8,21.2,30.17,North,4,15.0,17.0,18,0.00,,,0.00,612,WeatherHawk,2013-01-17 20:48:00,
2013-01-17 13:49:00,65.8,21.2,30.17,NNE,15,16.0,17.0,18,0.00,,,0.00,610,WeatherHawk,2013-01-17 20:49:00,
2013-01-17 13:51:00,65.8,21.2,30.17,North,9,14.0,17.0,18,0.00,,,0.00,607,WeatherHawk,2013-01-17 20:51:00,
2013-01-17 13:55:00,66.0,20.0,30.17,North,1,15.0,17.0,17,0.00,,,0.00,604,WeatherHawk,2013-01-17 20:55:00,
2013-01-17 13:57:00,66.0,21.3,30.17,North,6,16.0,17.0,18,0.00,,,0.00,602,WeatherHawk,2013-01-17 20:57:00,
2013-01-17 14:01:00,66.4,21.6,30.16,NNE,12,13.0,19.0,18,0.00,,,0.00,595,WeatherHawk,2013-01-17 21:01:00,
2013-01-17 14:02:00,66.4,20.3,30.16,NNE,21,12.0,19.0,17,0.00,,,0.00,594,WeatherHawk,2013-01-17 21:02:00,
2013-01-17 14:03:00,66.6,20.4,30.16,NNE,21,14.0,19.0,17,0.00,,,0.00,589,WeatherHawk,2013-01-17 21:03:00,
2013-01-17 14:04:00,66.6,20.4,30.16,NNE,14,17.0,19.0,17,0.00,,,0.00,590,WeatherHawk,2013-01-17 21:04:00,
2013-01-17 14:07:00,66.7,23.2,30.16,North,1,13.0,19.0,19,0.00,,,0.00,586,WeatherHawk,2013-01-17 21:07:00,
2013-01-17 14:10:00,66.7,20.5,30.16,North,4,11.0,19.0,17,0.00,,,0.00,582,WeatherHawk,2013-01-17 21:10:00,
2013-01-17 14:13:00,66.7,20.5,30.16,North,7,13.0,19.0,17,0.00,,,0.00,576,WeatherHawk,2013-01-17 21:13:00,
2013-01-17 14:14:00,66.7,20.5,30.16,NNE,15,12.0,19.0,17,0.00,,,0.00,575,WeatherHawk,2013-01-17 21:14:00,
2013-01-17 14:16:00,67.1,22.2,30.16,North,7,11.0,19.0,18,0.00,,,0.00,571,WeatherHawk,2013-01-17 21:16:00,
2013-01-17 14:17:00,67.1,22.2,30.16,North,7,11.0,19.0,18,0.00,,,0.00,571,WeatherHawk,2013-01-17 21:17:00,
2013-01-17 14:18:00,67.3,21.0,30.16,NNE,27,16.0,17.0,17,0.00,,,0.00,567,WeatherHawk,2013-01-17 21:18:00,
2013-01-17 14:21:00,66.9,20.7,30.16,NNE,19,14.0,17.0,17,0.00,,,0.00,564,WeatherHawk,2013-01-17 21:21:00,
2013-01-17 14:22:00,66.9,20.7,30.16,NNE,19,14.0,17.0,17,0.00,,,0.00,564,WeatherHawk,2013-01-17 21:22:00,
2013-01-17 14:26:00,67.5,21.1,30.16,North,359,13.0,17.0,17,0.00,,,0.00,554,WeatherHawk,2013-01-17 21:26:00,
2013-01-17 14:27:00,67.5,21.1,30.16,North,11,11.0,0.0,17,0.00,,,0.00,554,WeatherHawk,2013-01-17 21:27:00,
2013-01-17 14:29:00,67.6,22.6,30.16,North,352,15.0,16.0,18,0.00,,,0.00,551,WeatherHawk,2013-01-17 21:29:00,
2013-01-17 14:33:00,67.5,22.5,30.15,North,349,19.0,19.0,18,0.00,,,0.00,547,WeatherHawk,2013-01-17 21:33:00,
2013-01-17 14:38:00,67.3,22.3,30.15,North,353,12.0,19.0,18,0.00,,,0.00,534,WeatherHawk,2013-01-17 21:38:00,
2013-01-17 14:39:00,67.3,21.0,30.15,North,355,18.0,19.0,17,0.00,,,0.00,533,WeatherHawk,2013-01-17 21:39:00,
2013-01-17 14:40:00,67.1,22.2,30.15,North,352,17.0,19.0,18,0.00,,,0.00,530,WeatherHawk,2013-01-17 21:40:00,
2013-01-17 14:42:00,67.1,22.2,30.15,NNW,347,18.0,-999.0,18,0.00,,,0.00,528,WeatherHawk,2013-01-17 21:42:00,
2013-01-17 14:45:00,67.5,21.1,30.15,North,358,13.0,19.0,17,0.00,,,0.00,518,WeatherHawk,2013-01-17 21:45:00,
2013-01-17 14:46:00,67.5,21.1,30.15,NNW,346,17.0,19.0,17,0.00,,,0.00,518,WeatherHawk,2013-01-17 21:46:00,
2013-01-17 14:49:00,67.5,21.1,30.15,North,2,17.0,20.0,17,0.00,,,0.00,510,WeatherHawk,2013-01-17 21:49:00,
2013-01-17 14:52:00,67.5,21.1,30.15,North,8,12.0,20.0,17,0.00,,,0.00,505,WeatherHawk,2013-01-17 21:52:00,
2013-01-17 14:53:00,67.6,22.6,30.15,NNW,348,12.0,20.0,18,0.00,,,0.00,502,WeatherHawk,2013-01-17 21:53:00,
2013-01-17 14:56:00,67.6,22.6,30.15,North,357,12.0,20.0,18,0.00,,,0.00,498,WeatherHawk,2013-01-17 21:56:00,
2013-01-17 14:58:00,67.6,22.6,30.15,North,350,14.0,17.0,18,0.00,,,0.00,492,WeatherHawk,2013-01-17 21:58:00,
2013-01-17 15:01:00,67.6,22.6,30.15,NNW,344,12.0,17.0,18,0.00,,,0.00,487,WeatherHawk,2013-01-17 22:01:00,
2013-01-17 15:03:00,67.6,22.6,30.15,North,350,14.0,17.0,18,0.00,,,0.00,481,WeatherHawk,2013-01-17 22:03:00,
2013-01-17 15:05:00,67.5,22.5,30.15,North,358,15.0,17.0,18,0.00,,,0.00,476,WeatherHawk,2013-01-17 22:05:00,
2013-01-17 15:07:00,67.5,22.5,30.15,North,350,13.0,17.0,18,0.00,,,0.00,467,WeatherHawk,2013-01-17 22:07:00,
2013-01-17 15:10:00,67.6,22.6,30.15,North,354,10.0,19.0,18,0.00,,,0.00,464,WeatherHawk,2013-01-17 22:10:00,
2013-01-17 15:12:00,67.6,21.3,30.15,North,349,13.0,19.0,17,0.00,,,0.00,461,WeatherHawk,2013-01-17 22:12:00,
2013-01-17 15:16:00,67.5,22.5,30.15,NNW,348,15.0,19.0,18,0.00,,,0.00,449,WeatherHawk,2013-01-17 22:16:00,
2013-01-17 15:17:00,67.5,22.5,30.15,NNW,348,15.0,19.0,18,0.00,,,0.00,449,WeatherHawk,2013-01-17 22:17:00,
2013-01-17 15:19:00,67.5,22.5,30.15,North,359,11.0,17.0,18,0.00,,,0.00,441,WeatherHawk,2013-01-17 22:19:00,
2013-01-17 15:20:00,67.6,22.6,30.15,North,3,12.0,17.0,18,0.00,,,0.00,438,WeatherHawk,2013-01-17 22:20:00,
2013-01-17 15:22:00,67.6,22.6,30.15,NNW,344,12.0,-999.0,18,0.00,,,0.00,435,WeatherHawk,2013-01-17 22:22:00,
2013-01-17 15:23:00,67.6,22.6,30.15,NNW,348,11.0,17.0,18,0.00,,,0.00,431,WeatherHawk,2013-01-17 22:23:00,
2013-01-17 15:26:00,67.8,22.8,30.15,North,353,14.0,17.0,18,0.00,,,0.00,423,WeatherHawk,2013-01-17 22:26:00,
2013-01-17 15:27:00,67.8,22.8,30.15,North,4,13.0,17.0,18,0.00,,,0.00,420,WeatherHawk,2013-01-17 22:27:00,
2013-01-17 15:29:00,68.0,21.6,30.15,North,351,13.0,17.0,17,0.00,,,0.00,414,WeatherHawk,2013-01-17 22:29:00,
2013-01-17 15:32:00,68.0,21.6,30.15,North,1,13.0,17.0,17,0.00,,,0.00,407,WeatherHawk,2013-01-17 22:32:00,
2013-01-17 15:34:00,67.8,21.4,30.15,North,358,14.0,17.0,17,0.00,,,0.00,399,WeatherHawk,2013-01-17 22:34:00,
2013-01-17 15:37:00,67.6,22.6,30.15,NNW,344,11.0,0.0,18,0.00,,,0.00,392,WeatherHawk,2013-01-17 22:37:00,
2013-01-17 15:38:00,67.8,22.8,30.15,NNW,338,12.0,16.0,18,0.00,,,0.00,390,WeatherHawk,2013-01-17 22:38:00,
2013-01-17 15:39:00,67.8,22.8,30.15,NNW,340,14.0,16.0,18,0.00,,,0.00,387,WeatherHawk,2013-01-17 22:39:00,
2013-01-17 15:40:00,67.8,21.4,30.15,NNW,338,15.0,16.0,17,0.00,,,0.00,383,WeatherHawk,2013-01-17 22:40:00,
2013-01-17 15:44:00,67.8,22.8,30.15,NNW,337,11.0,16.0,18,0.00,,,0.00,373,WeatherHawk,2013-01-17 22:44:00,
2013-01-17 15:45:00,67.8,24.1,30.15,NNW,348,10.0,16.0,19,0.00,,,0.00,370,WeatherHawk,2013-01-17 22:45:00,
2013-01-17 15:47:00,67.8,22.8,30.15,NNW,345,13.0,16.0,18,0.00,,,0.00,369,WeatherHawk,2013-01-17 22:47:00,
2013-01-17 15:50:00,67.8,22.8,30.15,NNW,343,13.0,15.0,18,0.00,,,0.00,356,WeatherHawk,2013-01-17 22:50:00,
2013-01-17 15:52:00,67.8,21.4,30.15,NNW,347,14.0,15.0,17,0.00,,,0.00,352,WeatherHawk,2013-01-17 22:52:00,
2013-01-17 15:57:00,67.8,22.8,30.15,NNW,344,10.0,15.0,18,0.00,,,0.00,341,WeatherHawk,2013-01-17 22:57:00,
2013-01-17 16:01:00,67.8,22.8,30.15,North,356,12.0,16.0,18,0.00,,,0.00,323,WeatherHawk,2013-01-17 23:01:00,
2013-01-17 16:02:00,67.8,22.8,30.15,North,356,12.0,16.0,18,0.00,,,0.00,323,WeatherHawk,2013-01-17 23:02:00,
2013-01-17 16:05:00,67.8,22.8,30.15,North,355,14.0,16.0,18,0.00,,,0.00,314,WeatherHawk,2013-01-17 23:05:00,
2013-01-17 16:06:00,67.6,21.3,30.15,NNW,346,12.0,16.0,17,0.00,,,0.00,308,WeatherHawk,2013-01-17 23:06:00,
2013-01-17 16:10:00,67.6,22.6,30.15,NNW,343,14.0,16.0,18,0.00,,,0.00,297,WeatherHawk,2013-01-17 23:10:00,
2013-01-17 16:12:00,67.6,22.6,30.15,NNW,334,14.0,16.0,18,0.00,,,0.00,295,WeatherHawk,2013-01-17 23:12:00,
2013-01-17 16:15:00,67.5,22.5,30.15,NNW,339,14.0,16.0,18,0.00,,,0.00,282,WeatherHawk,2013-01-17 23:15:00,
2013-01-17 16:17:00,67.5,22.5,30.15,NNW,340,13.0,-999.0,18,0.00,,,0.00,279,WeatherHawk,2013-01-17 23:17:00,
2013-01-17 16:18:00,67.5,23.8,30.15,NNW,343,13.0,15.0,19,0.00,,,0.00,275,WeatherHawk,2013-01-17 23:18:00,
2013-01-17 16:23:00,67.3,23.6,30.15,NNW,341,14.0,15.0,19,0.00,,,0.00,257,WeatherHawk,2013-01-17 23:23:00,
2013-01-17 16:25:00,67.3,23.6,30.15,NNW,341,12.0,15.0,19,0.00,,,0.00,252,WeatherHawk,2013-01-17 23:25:00,
2013-01-17 16:26:00,67.3,23.6,30.15,NNW,339,10.0,15.0,19,0.00,,,0.00,249,WeatherHawk,2013-01-17 23:26:00,
2013-01-17 16:27:00,67.3,23.6,30.15,NNW,339,10.0,-999.0,19,0.00,,,0.00,249,WeatherHawk,2013-01-17 23:27:00,
2013-01-17 16:30:00,67.3,22.3,30.15,North,351,15.0,16.0,18,0.00,,,0.00,236,WeatherHawk,2013-01-17 23:30:00,
2013-01-17 16:32:00,67.3,22.3,30.15,North,352,14.0,16.0,18,0.00,,,0.00,228,WeatherHawk,2013-01-17 23:32:00,
2013-01-17 16:33:00,67.3,22.3,30.15,NNW,346,11.0,16.0,18,0.00,,,0.00,227,WeatherHawk,2013-01-17 23:33:00,
2013-01-17 16:37:00,67.3,22.3,30.15,North,350,10.0,-999.0,18,0.00,,,0.00,217,WeatherHawk,2013-01-17 23:37:00,
2013-01-17 16:38:00,67.1,23.5,30.15,North,351,11.0,15.0,19,0.00,,,0.00,213,WeatherHawk,2013-01-17 23:38:00,
2013-01-17 16:39:00,67.1,23.5,30.15,NNW,340,11.0,15.0,19,0.00,,,0.00,208,WeatherHawk,2013-01-17 23:39:00,
2013-01-17 16:42:00,67.1,24.7,30.15,NNW,339,10.0,15.0,20,0.00,,,0.00,203,WeatherHawk,2013-01-17 23:42:00,
2013-01-17 16:44:00,66.9,25.7,30.15,NNW,344,10.0,15.0,21,0.00,,,0.00,193,WeatherHawk,2013-01-17 23:44:00,
2013-01-17 16:48:00,66.7,25.6,30.15,NNW,338,12.0,15.0,21,0.00,,,0.00,183,WeatherHawk,2013-01-17 23:48:00,
2013-01-17 16:50:00,66.7,25.6,30.15,NNW,330,12.0,15.0,21,0.00,,,0.00,173,WeatherHawk,2013-01-17 23:50:00,
2013-01-17 16:52:00,66.6,25.4,30.15,NNW,339,11.0,-999.0,21,0.00,,,0.00,172,WeatherHawk,2013-01-17 23:52:00,
2013-01-17 16:54:00,66.4,25.3,30.15,NNW,341,11.0,15.0,21,0.00,,,0.00,164,WeatherHawk,2013-01-17 23:54:00,
2013-01-17 16:56:00,66.4,26.4,30.15,NNW,336,8.0,15.0,22,0.00,,,0.00,152,WeatherHawk,2013-01-17 23:56:00,
2013-01-17 16:57:00,66.4,26.4,30.15,NNW,336,8.0,15.0,22,0.00,,,0.00,152,WeatherHawk,2013-01-17 23:57:00,
2013-01-17 17:00:00,66.2,25.1,30.15,NNW,340,11.0,13.0,21,0.00,,,0.00,142,WeatherHawk,2013-01-18 00:00:00,
2013-01-17 17:02:00,66.2,26.2,30.15,NNW,338,10.0,13.0,22,0.00,,,0.00,142,WeatherHawk,2013-01-18 00:02:00,
2013-01-17 17:05:00,65.8,25.9,30.15,NNW,338,9.0,13.0,22,0.00,,,0.00,132,WeatherHawk,2013-01-18 00:05:00,
2013-01-17 17:06:00,65.8,27.0,30.15,NNW,339,10.0,13.0,23,0.00,,,0.00,129,WeatherHawk,2013-01-18 00:06:00,
2013-01-17 17:07:00,65.8,27.0,30.15,NNW,339,10.0,-999.0,23,0.00,,,0.00,129,WeatherHawk,2013-01-18 00:07:00,
2013-01-17 17:09:00,65.5,26.7,30.15,NNW,340,8.0,12.0,23,0.00,,,0.00,121,WeatherHawk,2013-01-18 00:09:00,
2013-01-17 17:11:00,65.5,26.7,30.15,NNW,337,9.0,12.0,23,0.00,,,0.00,117,WeatherHawk,2013-01-18 00:11:00,
2013-01-17 17:12:00,65.5,26.7,30.15,NNW,337,9.0,12.0,23,0.00,,,0.00,117,WeatherHawk,2013-01-18 00:12:00,
2013-01-17 17:14:00,65.3,25.5,30.15,NNW,336,9.0,12.0,22,0.00,,,0.00,107,WeatherHawk,2013-01-18 00:14:00,
2013-01-17 17:17:00,65.3,25.5,30.15,NNW,338,9.0,12.0,22,0.00,,,0.00,103,WeatherHawk,2013-01-18 00:17:00,
2013-01-17 17:21:00,64.9,25.2,30.15,NNW,343,10.0,0.0,22,0.00,,,0.00,89,WeatherHawk,2013-01-18 00:21:00,
2013-01-17 17:22:00,64.9,25.2,30.15,NNW,343,10.0,0.0,22,0.00,,,0.00,89,WeatherHawk,2013-01-18 00:22:00,
2013-01-17 17:23:00,64.9,25.2,30.15,NNW,345,10.0,0.0,22,0.00,,,0.00,85,WeatherHawk,2013-01-18 00:23:00,
2013-01-17 17:24:00,65.1,24.2,30.15,North,352,11.0,0.0,21,0.00,,,0.00,82,WeatherHawk,2013-01-18 00:24:00,
2013-01-17 17:26:00,65.1,24.2,30.15,North,352,10.0,0.0,21,0.00,,,0.00,73,WeatherHawk,2013-01-18 00:26:00,
2013-01-17 17:27:00,65.1,24.2,30.15,North,352,10.0,-999.0,21,0.00,,,0.00,73,WeatherHawk,2013-01-18 00:27:00,
2013-01-17 17:30:00,64.9,24.1,30.15,North,350,8.0,12.0,21,0.00,,,0.00,66,WeatherHawk,2013-01-18 00:30:00,
2013-01-17 17:32:00,64.8,23.9,30.15,NNW,346,11.0,12.0,21,0.00,,,0.00,64,WeatherHawk,2013-01-18 00:32:00,
2013-01-17 17:33:00,64.9,24.1,30.15,North,353,11.0,12.0,21,0.00,,,0.00,59,WeatherHawk,2013-01-18 00:33:00,
2013-01-17 17:37:00,64.8,23.9,30.15,North,349,10.0,-999.0,21,0.00,,,0.00,52,WeatherHawk,2013-01-18 00:37:00,
2013-01-17 17:39:00,64.6,23.8,30.15,North,352,9.0,13.0,21,0.00,,,0.00,45,WeatherHawk,2013-01-18 00:39:00,
2013-01-17 17:42:00,64.4,24.7,30.15,North,352,8.0,13.0,22,0.00,,,0.00,42,WeatherHawk,2013-01-18 00:42:00,
2013-01-17 17:44:00,63.9,24.3,30.16,North,358,6.0,13.0,22,0.00,,,0.00,36,WeatherHawk,2013-01-18 00:44:00,
2013-01-17 17:45:00,63.7,25.2,30.16,North,356,8.0,13.0,23,0.00,,,0.00,33,WeatherHawk,2013-01-18 00:45:00,
2013-01-17 17:47:00,63.3,24.9,30.16,North,356,6.0,0.0,23,0.00,,,0.00,29,WeatherHawk,2013-01-18 00:47:00,
2013-01-17 17:48:00,63.1,25.8,30.16,North,358,5.0,11.0,24,0.00,,,0.00,27,WeatherHawk,2013-01-18 00:48:00,
2013-01-17 17:52:00,62.8,25.5,30.16,North,359,6.0,-999.0,24,0.00,,,0.00,17,WeatherHawk,2013-01-18 00:52:00,
2013-01-17 17:54:00,62.6,25.3,30.16,NNW,346,7.0,11.0,24,0.00,,,0.00,9,WeatherHawk,2013-01-18 00:54:00,
2013-01-17 17:57:00,62.6,25.3,30.16,North,355,6.0,11.0,24,0.00,,,0.00,5,WeatherHawk,2013-01-18 00:57:00,
2013-01-17 17:58:00,62.2,25.0,30.16,North,356,6.0,8.0,24,0.00,,,0.00,2,WeatherHawk,2013-01-18 00:58:00,
2013-01-17 17:59:00,62.1,25.8,30.16,North,359,5.0,8.0,25,0.00,,,0.00,4,WeatherHawk,2013-01-18 00:59:00,
2013-01-17 18:03:00,61.9,24.7,30.16,North,354,6.0,8.0,24,0.00,,,0.00,2,WeatherHawk,2013-01-18 01:03:00,
2013-01-17 18:04:00,61.9,24.7,30.16,North,353,5.0,8.0,24,0.00,,,0.00,3,WeatherHawk,2013-01-18 01:04:00,
2013-01-17 18:06:00,61.9,24.7,30.16,North,352,5.0,8.0,24,0.00,,,0.00,1,WeatherHawk,2013-01-18 01:06:00,
2013-01-17 18:07:00,62.1,23.8,30.16,North,350,7.0,0.0,23,0.00,,,0.00,0,WeatherHawk,2013-01-18 01:07:00,
2013-01-17 18:10:00,62.1,23.8,30.16,North,352,7.0,0.0,23,0.00,,,0.00,1,WeatherHawk,2013-01-18 01:10:00,
2013-01-17 18:11:00,62.1,23.8,30.16,North,354,7.0,0.0,23,0.00,,,0.00,0,WeatherHawk,2013-01-18 01:11:00,
2013-01-17 18:14:00,61.9,23.7,30.16,North,350,8.0,0.0,23,0.00,,,0.00,0,WeatherHawk,2013-01-18 01:14:00,
2013-01-17 18:16:00,61.7,24.5,30.16,NNW,347,7.0,0.0,24,0.00,,,0.00,0,WeatherHawk,2013-01-18 01:16:00,
2013-01-17 18:17:00,61.7,24.5,30.16,NNW,346,6.0,0.0,24,0.00,,,0.00,0,WeatherHawk,2013-01-18 01:17:00,
2013-01-17 18:21:00,61.2,24.1,30.16,NNW,346,6.0,0.0,24,0.00,,,0.00,0,WeatherHawk,2013-01-18 01:21:00,
2013-01-17 18:22:00,61.2,24.1,30.16,NNW,345,6.0,0.0,24,0.00,,,0.00,0,WeatherHawk,2013-01-18 01:22:00,
2013-01-17 18:23:00,61.0,23.9,30.16,North,350,5.0,0.0,24,0.00,,,0.00,0,WeatherHawk,2013-01-18 01:23:00,
2013-01-17 18:26:00,61.0,23.9,30.16,North,350,5.0,0.0,24,0.00,,,0.00,0,WeatherHawk,2013-01-18 01:26:00,
2013-01-17 18:27:00,61.0,23.9,30.16,North,351,7.0,0.0,24,0.00,,,0.00,0,WeatherHawk,2013-01-18 01:27:00,
2013-01-17 18:29:00,61.0,23.9,30.16,NNW,346,6.0,7.0,24,0.00,,,0.00,0,WeatherHawk,2013-01-18 01:29:00,
2013-01-17 18:33:00,60.8,23.8,30.17,NNW,342,5.0,7.0,24,0.00,,,0.00,0,WeatherHawk,2013-01-18 01:33:00,
2013-01-17 18:34:00,60.8,23.8,30.17,NNW,346,6.0,7.0,24,0.00,,,0.00,0,WeatherHawk,2013-01-18 01:34:00,
2013-01-17 18:36:00,60.6,23.6,30.17,NNW,347,6.0,7.0,24,0.00,,,0.00,0,WeatherHawk,2013-01-18 01:36:00,
2013-01-17 18:39:00,60.6,23.6,30.17,NNW,344,6.0,6.0,24,0.00,,,0.00,0,WeatherHawk,2013-01-18 01:39:00,
2013-01-17 18:41:00,60.6,22.6,30.17,NNW,343,6.0,6.0,23,0.00,,,0.00,0,WeatherHawk,2013-01-18 01:41:00,
2013-01-17 18:43:00,60.6,22.6,30.17,NNW,344,5.0,6.0,23,0.00,,,0.00,0,WeatherHawk,2013-01-18 01:43:00,
2013-01-17 18:46:00,60.6,22.6,30.17,NNW,345,6.0,6.0,23,0.00,,,0.00,0,WeatherHawk,2013-01-18 01:46:00,
2013-01-17 18:51:00,60.4,22.5,30.17,NNW,336,5.0,0.0,23,0.00,,,0.00,0,WeatherHawk,2013-01-18 01:51:00,
2013-01-17 18:53:00,60.4,22.5,30.17,NNW,334,5.0,0.0,23,0.00,,,0.00,0,WeatherHawk,2013-01-18 01:53:00,
2013-01-17 18:55:00,60.4,22.5,30.17,NNW,330,4.0,0.0,23,0.00,,,0.00,0,WeatherHawk,2013-01-18 01:55:00,
2013-01-17 18:56:00,60.3,22.3,30.17,NNW,327,4.0,-999.0,23,0.00,,,0.00,0,WeatherHawk,2013-01-18 01:56:00,
2013-01-17 18:58:00,60.3,22.3,30.17,NNW,327,4.0,0.0,23,0.00,,,0.00,0,WeatherHawk,2013-01-18 01:58:00,
2013-01-17 19:00:00,60.1,23.2,30.17,NW,325,4.0,0.0,24,0.00,,,0.00,0,WeatherHawk,2013-01-18 02:00:00,
2013-01-17 19:01:00,60.1,23.2,30.17,NW,325,4.0,-999.0,24,0.00,,,0.00,0,WeatherHawk,2013-01-18 02:01:00,
2013-01-17 19:04:00,60.1,22.2,30.17,NNW,328,5.0,0.0,23,0.00,,,0.00,0,WeatherHawk,2013-01-18 02:04:00,
2013-01-17 19:06:00,60.1,22.2,30.17,NNW,331,6.0,0.0,23,0.00,,,0.00,0,WeatherHawk,2013-01-18 02:06:00,
2013-01-17 19:09:00,60.3,22.3,30.17,NNW,331,5.0,0.0,23,0.00,,,0.00,1,WeatherHawk,2013-01-18 02:09:00,
2013-01-17 19:10:00,60.1,22.2,30.17,NNW,329,5.0,0.0,23,0.00,,,0.00,0,WeatherHawk,2013-01-18 02:10:00,
2013-01-17 19:12:00,60.1,22.2,30.17,NNW,329,5.0,0.0,23,0.00,,,0.00,0,WeatherHawk,2013-01-18 02:12:00,
2013-01-17 19:15:00,60.1,22.2,30.17,NNW,330,5.0,0.0,23,0.00,,,0.00,0,WeatherHawk,2013-01-18 02:15:00,
2013-01-17 19:18:00,60.1,22.2,30.17,NNW,332,5.0,5.0,23,0.00,,,0.00,0,WeatherHawk,2013-01-18 02:18:00,
2013-01-17 19:21:00,60.3,22.3,30.17,NNW,336,5.0,5.0,23,0.00,,,0.00,0,WeatherHawk,2013-01-18 02:21:00,
2013-01-17 19:23:00,60.3,22.3,30.17,NNW,339,5.0,5.0,23,0.00,,,0.00,0,WeatherHawk,2013-01-18 02:23:00,
2013-01-17 19:24:00,60.3,22.3,30.17,NNW,336,6.0,6.0,23,0.00,,,0.00,0,WeatherHawk,2013-01-18 02:24:00,
2013-01-17 19:26:00,60.4,22.5,30.17,NNW,339,5.0,-999.0,23,0.00,,,0.00,0,WeatherHawk,2013-01-18 02:26:00,
2013-01-17 19:28:00,60.4,22.5,30.17,NNW,340,5.0,6.0,23,0.00,,,0.00,0,WeatherHawk,2013-01-18 02:28:00,
2013-01-17 19:31:00,60.3,22.3,30.17,NNW,341,5.0,6.0,23,0.00,,,0.00,0,WeatherHawk,2013-01-18 02:31:00,
2013-01-17 19:34:00,60.3,21.3,30.17,NNW,344,7.0,7.0,22,0.00,,,0.00,0,WeatherHawk,2013-01-18 02:34:00,
2013-01-17 19:36:00,60.3,22.3,30.17,North,349,7.0,-999.0,23,0.00,,,0.00,0,WeatherHawk,2013-01-18 02:36:00,
2013-01-17 19:40:00,59.9,22.0,30.17,North,351,7.0,0.0,23,0.00,,,0.00,0,WeatherHawk,2013-01-18 02:40:00,
2013-01-17 19:44:00,59.5,21.7,30.17,North,351,6.0,0.0,23,0.00,,,0.00,0,WeatherHawk,2013-01-18 02:44:00,
2013-01-17 19:45:00,59.4,21.6,30.17,North,351,6.0,0.0,23,0.00,,,0.00,0,WeatherHawk,2013-01-18 02:45:00,
2013-01-17 19:46:00,59.4,21.6,30.17,North,350,6.0,-999.0,23,0.00,,,0.00,0,WeatherHawk,2013-01-18 02:46:00,
2013-01-17 19:51:00,59.2,21.4,30.17,NNW,338,5.0,0.0,23,0.00,,,0.00,0,WeatherHawk,2013-01-18 02:51:00,
2013-01-17 19:52:00,59.4,21.6,30.17,NNW,331,5.0,0.0,23,0.00,,,0.00,0,WeatherHawk,2013-01-18 02:52:00,
2013-01-17 19:56:00,59.4,21.6,30.17,NW,325,5.0,0.0,23,0.00,,,0.00,0,WeatherHawk,2013-01-18 02:56:00,
2013-01-17 19:57:00,59.4,21.6,30.17,NW,325,5.0,0.0,23,0.00,,,0.00,0,WeatherHawk,2013-01-18 02:57:00,
2013-01-17 19:58:00,59.4,21.6,30.17,NW,325,5.0,0.0,23,0.00,,,0.00,0,WeatherHawk,2013-01-18 02:58:00,
2013-01-17 20:01:00,59.2,21.4,30.17,NW,317,4.0,0.0,23,0.00,,,0.00,0,WeatherHawk,2013-01-18 03:01:00,
2013-01-17 20:03:00,59.0,21.3,30.17,NW,316,5.0,0.0,23,0.00,,,0.00,0,WeatherHawk,2013-01-18 03:03:00,
2013-01-17 20:06:00,59.0,21.3,30.17,NW,319,5.0,0.0,23,0.00,,,0.00,0,WeatherHawk,2013-01-18 03:06:00,
2013-01-17 20:07:00,59.0,21.3,30.17,NW,317,6.0,6.0,23,0.00,,,0.00,0,WeatherHawk,2013-01-18 03:07:00,
2013-01-17 20:09:00,59.0,21.3,30.17,NW,320,6.0,6.0,23,0.00,,,0.00,0,WeatherHawk,2013-01-18 03:09:00,
2013-01-17 20:11:00,59.2,21.4,30.17,NW,318,6.0,6.0,23,0.00,,,0.00,0,WeatherHawk,2013-01-18 03:11:00,
2013-01-17 20:14:00,59.0,22.3,30.17,NW,319,5.0,6.0,24,0.00,,,0.00,1,WeatherHawk,2013-01-18 03:14:00,
2013-01-17 20:16:00,58.6,22.0,30.17,NW,321,5.0,6.0,24,0.00,,,0.00,0,WeatherHawk,2013-01-18 03:16:00,
2013-01-17 20:18:00,58.6,22.0,30.17,NNW,330,5.0,0.0,24,0.00,,,0.00,0,WeatherHawk,2013-01-18 03:18:00,
2013-01-17 20:21:00,58.6,22.0,30.17,NNW,331,5.0,0.0,24,0.00,,,0.00,0,WeatherHawk,2013-01-18 03:21:00,
2013-01-17 20:23:00,58.5,21.8,30.17,NNW,331,5.0,0.0,24,0.00,,,0.00,0,WeatherHawk,2013-01-18 03:23:00,
2013-01-17 20:26:00,58.5,21.8,30.17,NNW,336,5.0,0.0,24,0.00,,,0.00,0,WeatherHawk,2013-01-18 03:26:00,
2013-01-17 20:28:00,58.5,21.8,30.17,NNW,332,5.0,5.0,24,0.00,,,0.00,1,WeatherHawk,2013-01-18 03:28:00,
2013-01-17 20:29:00,58.5,21.8,30.17,NNW,329,5.0,5.0,24,0.00,,,0.00,0,WeatherHawk,2013-01-18 03:29:00,
2013-01-17 20:31:00,58.5,21.8,30.17,NNW,327,4.0,-999.0,24,0.00,,,0.00,0,WeatherHawk,2013-01-18 03:31:00,
2013-01-17 20:35:00,58.3,21.7,30.17,NW,322,4.0,5.0,24,0.00,,,0.00,0,WeatherHawk,2013-01-18 03:35:00,
2013-01-17 20:36:00,58.3,21.7,30.17,NW,314,4.0,5.0,24,0.00,,,0.00,0,WeatherHawk,2013-01-18 03:36:00,
2013-01-17 20:39:00,57.6,22.0,30.17,WNW,296,3.0,0.0,25,0.00,,,0.00,0,WeatherHawk,2013-01-18 03:39:00,
2013-01-17 20:41:00,57.4,21.9,30.17,WNW,296,4.0,0.0,25,0.00,,,0.00,0,WeatherHawk,2013-01-18 03:41:00,
2013-01-17 20:45:00,57.2,21.7,30.17,NW,313,4.0,0.0,25,0.00,,,0.00,0,WeatherHawk,2013-01-18 03:45:00,
2013-01-17 20:46:00,57.2,21.7,30.17,NW,313,4.0,-999.0,25,0.00,,,0.00,0,WeatherHawk,2013-01-18 03:46:00,
2013-01-17 20:50:00,57.2,21.7,30.17,NW,306,5.0,0.0,25,0.00,,,0.00,1,WeatherHawk,2013-01-18 03:50:00,
2013-01-17 20:51:00,57.2,21.7,30.17,NW,306,5.0,-999.0,25,0.00,,,0.00,1,WeatherHawk,2013-01-18 03:51:00,
2013-01-17 20:53:00,57.0,21.6,30.17,WNW,302,5.0,0.0,25,0.00,,,0.00,0,WeatherHawk,2013-01-18 03:53:00,
2013-01-17 20:58:00,57.0,21.6,30.17,WNW,296,4.0,0.0,25,0.00,,,0.00,0,WeatherHawk,2013-01-18 03:58:00,
2013-01-17 21:01:00,56.8,21.4,30.17,West,279,4.0,0.0,25,0.00,,,0.00,0,WeatherHawk,2013-01-18 04:01:00,
2013-01-17 21:02:00,56.7,22.2,30.17,West,264,5.0,-999.0,26,0.00,,,0.00,0,WeatherHawk,2013-01-18 04:02:00,
2013-01-17 21:03:00,55.9,21.6,30.17,West,261,5.0,0.0,26,0.00,,,0.00,0,WeatherHawk,2013-01-18 04:03:00,
2013-01-17 21:07:00,55.9,21.6,30.17,West,260,4.0,5.0,26,0.00,,,0.00,0,WeatherHawk,2013-01-18 04:07:00,
2013-01-17 21:09:00,55.9,21.6,30.17,West,264,4.0,6.0,26,0.00,,,0.00,0,WeatherHawk,2013-01-18 04:09:00,
2013-01-17 21:14:00,56.1,21.7,30.17,WNW,285,4.0,6.0,26,0.00,,,0.00,0,WeatherHawk,2013-01-18 04:14:00,
2013-01-17 21:16:00,56.1,20.8,30.17,WNW,301,4.0,6.0,25,0.00,,,0.00,0,WeatherHawk,2013-01-18 04:16:00,
2013-01-17 21:17:00,56.1,20.8,30.17,WNW,301,4.0,-999.0,25,0.00,,,0.00,0,WeatherHawk,2013-01-18 04:17:00,
2013-01-17 21:20:00,56.5,20.1,30.17,NW,311,4.0,5.0,24,0.00,,,0.00,0,WeatherHawk,2013-01-18 04:20:00,
2013-01-17 21:21:00,56.7,20.3,30.17,NW,319,4.0,5.0,24,0.00,,,0.00,0,WeatherHawk,2013-01-18 04:21:00,
2013-01-17 21:22:00,56.8,20.4,30.17,NW,319,4.0,5.0,24,0.00,,,0.00,0,WeatherHawk,2013-01-18 04:22:00,
2013-01-17 21:26:00,57.0,20.6,30.17,NW,326,4.0,5.0,24,0.00,,,0.00,0,WeatherHawk,2013-01-18 04:26:00,
2013-01-17 21:29:00,57.0,19.6,30.17,NNW,327,4.0,0.0,23,0.00,,,0.00,0,WeatherHawk,2013-01-18 04:29:00,
2013-01-17 21:32:00,57.2,19.7,30.17,NW,319,4.0,4.0,23,0.00,,,0.00,0,WeatherHawk,2013-01-18 04:32:00,
2013-01-17 21:37:00,57.7,19.2,30.17,NNW,329,4.0,4.0,22,0.00,,,0.00,0,WeatherHawk,2013-01-18 04:37:00,
2013-01-17 21:38:00,57.7,19.2,30.17,NNW,336,4.0,0.0,22,0.00,,,0.00,0,WeatherHawk,2013-01-18 04:38:00,
2013-01-17 21:40:00,57.9,20.4,30.17,NNW,333,3.0,4.0,23,0.00,,,0.00,0,WeatherHawk,2013-01-18 04:40:00,
2013-01-17 21:42:00,57.9,19.3,30.17,NNW,333,3.0,4.0,22,0.00,,,0.00,2,WeatherHawk,2013-01-18 04:42:00,
2013-01-17 21:45:00,57.7,20.2,30.17,NNW,327,3.0,4.0,23,0.00,,,0.00,0,WeatherHawk,2013-01-18 04:45:00,
2013-01-17 21:47:00,57.6,20.1,30.17,NNW,330,3.0,4.0,23,0.00,,,0.00,0,WeatherHawk,2013-01-18 04:47:00,
2013-01-17 21:51:00,57.0,19.6,30.17,NW,318,3.0,4.0,23,0.00,,,0.00,0,WeatherHawk,2013-01-18 04:51:00,
2013-01-17 21:52:00,56.8,19.4,30.17,NNW,327,3.0,4.0,23,0.00,,,0.00,0,WeatherHawk,2013-01-18 04:52:00,
2013-01-17 21:56:00,56.8,19.4,30.17,NNW,337,3.0,4.0,23,0.00,,,0.00,0,WeatherHawk,2013-01-18 04:56:00,
2013-01-17 21:58:00,57.0,19.6,30.17,NNW,339,3.0,0.0,23,0.00,,,0.00,0,WeatherHawk,2013-01-18 04:58:00,
2013-01-17 21:59:00,57.2,19.7,30.17,NNW,341,3.0,3.0,23,0.00,,,0.00,0,WeatherHawk,2013-01-18 04:59:00,
2013-01-17 22:01:00,57.4,19.9,30.17,NW,326,2.0,3.0,23,0.00,,,0.00,0,WeatherHawk,2013-01-18 05:01:00,
2013-01-17 22:04:00,56.8,20.4,30.17,WSW,252,3.0,3.0,24,0.00,,,0.00,0,WeatherHawk,2013-01-18 05:04:00,
2013-01-17 22:06:00,56.3,20.9,30.17,SW,229,2.0,3.0,25,0.00,,,0.00,0,WeatherHawk,2013-01-18 05:06:00,
2013-01-17 22:07:00,56.1,20.8,30.17,SW,229,2.0,0.0,25,0.00,,,0.00,0,WeatherHawk,2013-01-18 05:07:00,
2013-01-17 22:12:00,55.2,20.9,30.17,WSW,247,2.0,-999.0,26,0.00,,,0.00,0,WeatherHawk,2013-01-18 05:12:00,
2013-01-17 22:13:00,55.0,20.8,30.17,SW,234,1.0,3.0,26,0.00,,,0.00,0,WeatherHawk,2013-01-18 05:13:00,
2013-01-17 22:17:00,54.5,20.3,30.17,SSE,165,1.0,3.0,26,0.00,,,0.00,0,WeatherHawk,2013-01-18 05:17:00,
2013-01-17 22:18:00,54.3,21.1,30.17,South,179,1.0,3.0,27,0.00,,,0.00,0,WeatherHawk,2013-01-18 05:18:00,
2013-01-17 22:20:00,54.1,20.9,30.17,South,189,0.0,3.0,27,0.00,,,0.00,0,WeatherHawk,2013-01-18 05:20:00,
2013-01-17 22:22:00,54.1,20.9,30.17,SSE,153,1.0,3.0,27,0.00,,,0.00,0,WeatherHawk,2013-01-18 05:22:00,
2013-01-17 22:26:00,53.2,21.0,30.17,South,172,4.0,4.0,28,0.00,,,0.00,0,WeatherHawk,2013-01-18 05:26:00,
2013-01-17 22:27:00,52.9,21.5,30.17,South,174,4.0,4.0,29,0.00,,,0.00,0,WeatherHawk,2013-01-18 05:27:00,
2013-01-17 22:31:00,51.3,22.4,30.17,South,173,4.0,4.0,32,0.00,,,0.00,0,WeatherHawk,2013-01-18 05:31:00,
2013-01-17 22:32:00,51.3,22.4,30.17,South,173,4.0,4.0,32,0.00,,,0.00,0,WeatherHawk,2013-01-18 05:32:00,
2013-01-17 22:35:00,50.4,23.1,30.17,SSE,168,4.0,4.0,34,0.00,,,0.00,0,WeatherHawk,2013-01-18 05:35:00,
2013-01-17 22:37:00,50.2,22.9,30.17,SSE,167,4.0,4.0,34,0.00,,,0.00,0,WeatherHawk,2013-01-18 05:37:00,
2013-01-17 22:39:00,49.8,23.3,30.17,South,184,3.0,4.0,35,0.00,,,0.00,0,WeatherHawk,2013-01-18 05:39:00,
2013-01-17 22:42:00,49.3,24.1,30.17,South,176,4.0,4.0,37,0.00,,,0.00,0,WeatherHawk,2013-01-18 05:42:00,
2013-01-17 22:46:00,49.6,23.8,30.17,SSW,192,4.0,4.0,36,0.00,,,0.00,0,WeatherHawk,2013-01-18 05:46:00,
2013-01-17 22:47:00,49.6,23.8,30.17,South,188,4.0,4.0,36,0.00,,,0.00,0,WeatherHawk,2013-01-18 05:47:00,
2013-01-17 22:48:00,49.6,23.8,30.17,South,186,4.0,4.0,36,0.00,,,0.00,0,WeatherHawk,2013-01-18 05:48:00,
2013-01-17 22:50:00,49.6,23.8,30.17,South,181,3.0,4.0,36,0.00,,,0.00,0,WeatherHawk,2013-01-18 05:50:00,
2013-01-17 22:52:00,49.1,24.0,30.17,South,183,3.0,4.0,37,0.00,,,0.00,0,WeatherHawk,2013-01-18 05:52:00,
2013-01-17 22:54:00,48.9,23.8,30.16,South,181,3.0,4.0,37,0.00,,,0.00,0,WeatherHawk,2013-01-18 05:54:00,
2013-01-17 22:57:00,48.9,23.8,30.16,South,185,3.0,4.0,37,0.00,,,0.00,0,WeatherHawk,2013-01-18 05:57:00,
2013-01-17 22:59:00,48.7,23.6,30.16,SSE,168,4.0,4.0,37,0.00,,,0.00,0,WeatherHawk,2013-01-18 05:59:00,
2013-01-17 23:02:00,48.6,24.1,30.16,South,172,4.0,4.0,38,0.00,,,0.00,0,WeatherHawk,2013-01-18 06:02:00,
2013-01-17 23:03:00,48.4,24.0,30.16,South,175,4.0,4.0,38,0.00,,,0.00,0,WeatherHawk,2013-01-18 06:03:00,
2013-01-17 23:09:00,47.8,24.1,30.16,South,176,3.0,4.0,39,0.00,,,0.00,0,WeatherHawk,2013-01-18 06:09:00,
2013-01-17 23:11:00,47.8,23.5,30.16,South,178,4.0,4.0,38,0.00,,,0.00,0,WeatherHawk,2013-01-18 06:11:00,
2013-01-17 23:15:00,49.1,24.0,30.16,South,176,3.0,4.0,37,0.00,,,0.00,0,WeatherHawk,2013-01-18 06:15:00,
2013-01-17 23:16:00,48.9,23.8,30.16,SSE,168,3.0,4.0,37,0.00,,,0.00,0,WeatherHawk,2013-01-18 06:16:00,
2013-01-17 23:17:00,48.7,23.6,30.16,South,169,3.0,4.0,37,0.00,,,0.00,0,WeatherHawk,2013-01-18 06:17:00,
2013-01-17 23:22:00,50.7,21.9,30.17,SE,140,2.0,4.0,32,0.00,,,0.00,0,WeatherHawk,2013-01-18 06:22:00,
2013-01-17 23:23:00,51.3,21.7,30.17,ESE,119,2.0,4.0,31,0.00,,,0.00,0,WeatherHawk,2013-01-18 06:23:00,
2013-01-17 23:27:00,52.7,20.5,30.17,ENE,59,1.0,-999.0,28,0.00,,,0.00,0,WeatherHawk,2013-01-18 06:27:00,
2013-01-17 23:31:00,54.9,19.7,30.16,NNE,13,3.0,3.0,25,0.00,,,0.00,0,WeatherHawk,2013-01-18 06:31:00,
2013-01-17 23:32:00,54.9,19.7,30.16,NNE,13,3.0,3.0,25,0.00,,,0.00,0,WeatherHawk,2013-01-18 06:32:00,
2013-01-17 23:35:00,56.1,19.8,30.16,NNE,18,4.0,4.0,24,0.00,,,0.00,0,WeatherHawk,2013-01-18 06:35:00,
2013-01-17 23:37:00,56.3,20.0,30.16,North,2,5.0,-999.0,24,0.00,,,0.00,1,WeatherHawk,2013-01-18 06:37:00,
2013-01-17 23:39:00,56.7,19.3,30.16,North,8,5.0,5.0,23,0.00,,,0.00,0,WeatherHawk,2013-01-18 06:39:00,
2013-01-17 23:41:00,56.7,19.3,30.16,North,3,4.0,5.0,23,0.00,,,0.00,0,WeatherHawk,2013-01-18 06:41:00,
2013-01-17 23:42:00,56.7,19.3,30.17,North,3,5.0,5.0,23,0.00,,,0.00,0,WeatherHawk,2013-01-18 06:42:00,
2013-01-17 23:43:00,56.7,18.3,30.16,North,4,6.0,6.0,22,0.00,,,0.00,0,WeatherHawk,2013-01-18 06:43:00,
2013-01-17 23:45:00,56.8,18.4,30.16,North,0,6.0,6.0,22,0.00,,,0.00,0,WeatherHawk,2013-01-18 06:45:00,
2013-01-17 23:47:00,56.7,18.3,30.16,North,356,6.0,6.0,22,0.00,,,0.00,0,WeatherHawk,2013-01-18 06:47:00,
2013-01-17 23:50:00,56.7,18.3,30.16,North,353,5.0,6.0,22,0.00,,,0.00,0,WeatherHawk,2013-01-18 06:50:00,
2013-01-17 23:53:00,56.5,19.1,30.16,NNW,347,5.0,6.0,23,0.00,,,0.00,0,WeatherHawk,2013-01-18 06:53:00,
2013-01-17 23:56:00,56.3,19.0,30.16,NNW,334,5.0,6.0,23,0.00,,,0.00,0,WeatherHawk,2013-01-18 06:56:00,
2013-01-17 23:57:00,56.3,19.0,30.16,NNW,334,5.0,-999.0,23,0.00,,,0.00,0,WeatherHawk,2013-01-18 06:57:00,
2013-01-17 23:58:00,56.1,18.8,30.16,NNW,337,5.0,6.0,23,0.00,,,0.00,0,WeatherHawk,2013-01-18 06:58:00,